Wetterdaten: Dienstag, 27.12.2022
Datum Zeit Temp. Aussen Temp. o. S. Temp +5cm Feuchte Auss Luftdruck Regen Sonnenschein Regendauer Solar Windben Empfang
27.12.2022 00:00 3,8 C 3,3 C 0,6 C 88 % 1022,6 hPa 0,0 l/m 0 min 0 min 0 W/m 19,3 km/h (3 Bft) 97,87 %
27.12.2022 00:02 3,8 C 2,8 C 0,6 C 88 % 1022,6 hPa 0,0 l/m 0 min 0 min 0 W/m 19,3 km/h (3 Bft) 94,74 %
27.12.2022 00:04 3,8 C 2,8 C 0,6 C 88 % 1022,6 hPa 0,0 l/m 0 min 0 min 0 W/m 22,5 km/h (4 Bft) 95,74 %
27.12.2022 00:08 3,8 C 3,3 C 0,6 C 88 % 1022,7 hPa 0,0 l/m 0 min 0 min 0 W/m 25,7 km/h (4 Bft) 96,74 %
27.12.2022 00:10 3,8 C 3,3 C 0,6 C 88 % 1022,7 hPa 0,0 l/m 0 min 0 min 0 W/m 32,2 km/h (5 Bft) 97,87 %
27.12.2022 00:12 3,8 C 3,3 C 0,6 C 88 % 1022,7 hPa 0,0 l/m 0 min 0 min 0 W/m 22,5 km/h (4 Bft) 97,87 %
27.12.2022 00:14 3,8 C 3,3 C 0,6 C 88 % 1022,7 hPa 0,0 l/m 0 min 0 min 0 W/m 19,3 km/h (3 Bft) 95,74 %
27.12.2022 00:16 3,8 C 3,3 C 0,6 C 88 % 1022,8 hPa 0,0 l/m 0 min 0 min 0 W/m 16,1 km/h (3 Bft) 95,74 %
27.12.2022 00:18 3,8 C 3,3 C 0,6 C 88 % 1022,8 hPa 0,0 l/m 0 min 0 min 0 W/m 19,3 km/h (3 Bft) 93,62 %
27.12.2022 00:20 3,8 C 2,8 C 0,6 C 88 % 1022,7 hPa 0,0 l/m 0 min 0 min 0 W/m 16,1 km/h (3 Bft) 95,65 %
27.12.2022 00:22 3,8 C 2,8 C 0,6 C 88 % 1022,8 hPa 0,0 l/m 0 min 0 min 0 W/m 22,5 km/h (4 Bft) 93,62 %
27.12.2022 00:24 3,8 C 2,8 C 0,6 C 88 % 1022,7 hPa 0,0 l/m 0 min 0 min 0 W/m 16,1 km/h (3 Bft) 95,74 %
27.12.2022 00:26 3,8 C 2,8 C 0,6 C 88 % 1022,7 hPa 0,0 l/m 0 min 0 min 0 W/m 12,9 km/h (3 Bft) 97,87 %
27.12.2022 00:28 3,8 C 2,8 C 0,6 C 88 % 1022,8 hPa 0,0 l/m 0 min 0 min 0 W/m 16,1 km/h (3 Bft) 97,87 %
27.12.2022 00:30 3,7 C 2,8 C 0,6 C 88 % 1022,8 hPa 0,0 l/m 0 min 0 min 0 W/m 12,9 km/h (3 Bft) 97,87 %
27.12.2022 00:32 3,7 C 2,8 C 0,6 C 88 % 1022,8 hPa 0,0 l/m 0 min 0 min 0 W/m 19,3 km/h (3 Bft) 97,83 %
27.12.2022 00:34 3,7 C 2,8 C 0,6 C 88 % 1022,8 hPa 0,0 l/m 0 min 0 min 0 W/m 16,1 km/h (3 Bft) 95,74 %
27.12.2022 00:36 3,7 C 2,8 C 0,6 C 88 % 1022,8 hPa 0,0 l/m 0 min 0 min 0 W/m 19,3 km/h (3 Bft) 97,87 %
27.12.2022 00:38 3,7 C 2,8 C 0,6 C 89 % 1022,8 hPa 0,0 l/m 0 min 0 min 0 W/m 19,3 km/h (3 Bft) 97,87 %
27.12.2022 00:40 3,7 C 2,8 C 0,6 C 89 % 1022,8 hPa 0,0 l/m 0 min 0 min 0 W/m 19,3 km/h (3 Bft) 97,87 %
27.12.2022 00:42 3,7 C 2,8 C 0,6 C 89 % 1022,8 hPa 0,0 l/m 0 min 0 min 0 W/m 22,5 km/h (4 Bft) 95,74 %
27.12.2022 00:44 3,7 C 2,8 C 0,6 C 89 % 1022,9 hPa 0,0 l/m 0 min 0 min 0 W/m 9,7 km/h (2 Bft) 97,87 %
27.12.2022 00:46 3,7 C 2,8 C 0,6 C 89 % 1022,9 hPa 0,0 l/m 0 min 0 min 0 W/m 22,5 km/h (4 Bft) 97,83 %
27.12.2022 00:48 3,7 C 2,8 C 0,6 C 89 % 1022,7 hPa 0,0 l/m 0 min 0 min 0 W/m 19,3 km/h (3 Bft) 97,87 %
27.12.2022 00:50 3,7 C 2,8 C 0,6 C 89 % 1022,8 hPa 0,0 l/m 0 min 0 min 0 W/m 19,3 km/h (3 Bft) 97,87 %
27.12.2022 00:52 3,7 C 2,8 C 0,6 C 89 % 1022,9 hPa 0,0 l/m 0 min 0 min 0 W/m 16,1 km/h (3 Bft) 93,62 %
27.12.2022 00:54 3,7 C 2,8 C 0,6 C 89 % 1022,9 hPa 0,0 l/m 0 min 0 min 0 W/m 9,7 km/h (2 Bft) 97,87 %
27.12.2022 00:56 3,7 C 2,8 C 0,6 C 89 % 1022,9 hPa 0,0 l/m 0 min 0 min 0 W/m 19,3 km/h (3 Bft) 97,87 %
27.12.2022 00:58 3,7 C 2,8 C 0,6 C 89 % 1022,8 hPa 0,0 l/m 0 min 0 min 0 W/m 22,5 km/h (4 Bft) 97,83 %
27.12.2022 01:00 3,7 C 3,3 C 0,6 C 89 % 1022,8 hPa 0,0 l/m 0 min 0 min 0 W/m 19,3 km/h (3 Bft) 95,74 %
27.12.2022 01:02 3,8 C 3,3 C 0,6 C 89 % 1022,9 hPa 0,0 l/m 0 min 0 min 0 W/m 22,5 km/h (4 Bft) 97,87 %
27.12.2022 01:04 3,8 C 3,3 C 0,6 C 89 % 1022,8 hPa 0,0 l/m 0 min 0 min 0 W/m 19,3 km/h (3 Bft) 95,74 %
27.12.2022 01:06 3,8 C 3,3 C 0,6 C 89 % 1022,8 hPa 0,0 l/m 0 min 0 min 0 W/m 19,3 km/h (3 Bft) 97,87 %
27.12.2022 01:08 3,8 C 3,3 C 0,6 C 89 % 1022,8 hPa 0,0 l/m 0 min 0 min 0 W/m 19,3 km/h (3 Bft) 95,74 %
27.12.2022 01:10 3,8 C 3,3 C 0,6 C 89 % 1022,8 hPa 0,0 l/m 0 min 0 min 0 W/m 19,3 km/h (3 Bft) 97,87 %
27.12.2022 01:12 3,8 C 3,3 C 0,6 C 89 % 1022,8 hPa 0,0 l/m 0 min 0 min 0 W/m 16,1 km/h (3 Bft) 97,83 %
27.12.2022 01:14 3,8 C 3,3 C 0,6 C 89 % 1022,9 hPa 0,0 l/m 0 min 0 min 0 W/m 19,3 km/h (3 Bft) 97,87 %
27.12.2022 01:19 3,8 C 2,8 C 0,6 C 89 % 1022,9 hPa 0,0 l/m 0 min 0 min 0 W/m 19,3 km/h (3 Bft) 95,52 %
27.12.2022 01:20 3,8 C 2,8 C 0,6 C 89 % 1022,9 hPa 0,0 l/m 0 min 0 min 0 W/m 12,9 km/h (3 Bft) 95,83 %
27.12.2022 01:22 3,8 C 2,8 C 0,6 C 89 % 1022,9 hPa 0,0 l/m 0 min 0 min 0 W/m 16,1 km/h (3 Bft) 97,87 %
27.12.2022 01:24 3,8 C 2,8 C 0,6 C 89 % 1023,0 hPa 0,0 l/m 0 min 0 min 0 W/m 22,5 km/h (4 Bft) 97,83 %
27.12.2022 01:26 3,8 C 3,3 C 0,6 C 90 % 1023,0 hPa 0,0 l/m 0 min 0 min 0 W/m 19,3 km/h (3 Bft) 97,87 %
27.12.2022 01:28 3,8 C 2,8 C 0,6 C 90 % 1023,0 hPa 0,0 l/m 0 min 0 min 0 W/m 12,9 km/h (3 Bft) 97,87 %
27.12.2022 01:30 3,8 C 2,8 C 0,6 C 90 % 1023,0 hPa 0,0 l/m 0 min 0 min 0 W/m 19,3 km/h (3 Bft) 97,87 %
27.12.2022 01:32 3,8 C 2,8 C 0,6 C 90 % 1023,0 hPa 0,0 l/m 0 min 0 min 0 W/m 16,1 km/h (3 Bft) 97,87 %
27.12.2022 01:34 3,8 C 2,8 C 0,6 C 90 % 1023,0 hPa 0,0 l/m 0 min 0 min 0 W/m 19,3 km/h (3 Bft) 97,87 %
27.12.2022 01:36 3,8 C 3,3 C 0,6 C 90 % 1023,0 hPa 0,0 l/m 0 min 0 min 0 W/m 29,0 km/h (5 Bft) 97,83 %
27.12.2022 01:38 3,8 C 3,3 C 0,6 C 90 % 1023,0 hPa 0,0 l/m 0 min 0 min 0 W/m 22,5 km/h (4 Bft) 95,74 %
27.12.2022 01:40 3,8 C 2,8 C 0,6 C 90 % 1023,0 hPa 0,0 l/m 0 min 0 min 0 W/m 16,1 km/h (3 Bft) 95,74 %
27.12.2022 01:42 3,8 C 3,3 C 0,6 C 90 % 1023,1 hPa 0,0 l/m 0 min 0 min 0 W/m 22,5 km/h (4 Bft) 93,62 %
27.12.2022 01:44 3,8 C 3,3 C 0,6 C 90 % 1023,1 hPa 0,0 l/m 0 min 0 min 0 W/m 19,3 km/h (3 Bft) 95,74 %
27.12.2022 01:46 3,8 C 3,3 C 0,6 C 90 % 1023,1 hPa 0,0 l/m 0 min 0 min 0 W/m 25,7 km/h (4 Bft) 95,74 %
27.12.2022 01:48 3,8 C 3,3 C 0,6 C 90 % 1023,2 hPa 0,0 l/m 0 min 0 min 0 W/m 35,4 km/h (5 Bft) 95,74 %
27.12.2022 01:50 3,8 C 2,8 C 0,6 C 90 % 1023,2 hPa 0,0 l/m 0 min 0 min 0 W/m 16,1 km/h (3 Bft) 95,65 %
27.12.2022 01:52 3,8 C 2,8 C 0,6 C 90 % 1023,2 hPa 0,0 l/m 0 min 0 min 0 W/m 16,1 km/h (3 Bft) 95,74 %
27.12.2022 01:54 3,8 C 2,8 C 0,6 C 90 % 1023,2 hPa 0,0 l/m 0 min 0 min 0 W/m 16,1 km/h (3 Bft) 97,87 %
27.12.2022 01:56 3,8 C 2,8 C 0,6 C 90 % 1023,2 hPa 0,0 l/m 0 min 0 min 0 W/m 16,1 km/h (3 Bft) 97,87 %
27.12.2022 01:58 3,8 C 2,8 C 0,6 C 90 % 1023,2 hPa 0,0 l/m 0 min 0 min 0 W/m 19,3 km/h (3 Bft) 97,87 %
27.12.2022 02:00 3,8 C 2,8 C 0,6 C 90 % 1023,2 hPa 0,0 l/m 0 min 0 min 0 W/m 19,3 km/h (3 Bft) 93,62 %
27.12.2022 02:02 3,8 C 2,8 C 0,6 C 90 % 1023,2 hPa 0,0 l/m 0 min 0 min 0 W/m 19,3 km/h (3 Bft) 93,48 %
27.12.2022 02:04 3,8 C 2,8 C 0,6 C 90 % 1023,2 hPa 0,0 l/m 0 min 0 min 0 W/m 9,7 km/h (2 Bft) 95,74 %
27.12.2022 02:06 3,8 C 2,8 C 0,6 C 90 % 1023,2 hPa 0,0 l/m 0 min 0 min 0 W/m 12,9 km/h (3 Bft) 97,87 %
27.12.2022 02:08 3,8 C 2,8 C 0,6 C 90 % 1023,2 hPa 0,0 l/m 0 min 0 min 0 W/m 25,7 km/h (4 Bft) 95,74 %
27.12.2022 02:10 3,7 C 2,8 C 0,6 C 90 % 1023,2 hPa 0,0 l/m 0 min 0 min 0 W/m 19,3 km/h (3 Bft) 95,74 %
27.12.2022 02:14 3,8 C 2,8 C 0,6 C 90 % 1023,2 hPa 0,0 l/m 0 min 0 min 0 W/m 22,5 km/h (4 Bft) 86,67 %
27.12.2022 02:16 3,8 C 2,8 C 0,6 C 90 % 1023,3 hPa 0,0 l/m 0 min 0 min 0 W/m 9,7 km/h (2 Bft) 100,00 %
27.12.2022 02:18 3,8 C 2,8 C 0,6 C 90 % 1023,3 hPa 0,0 l/m 0 min 0 min 0 W/m 16,1 km/h (3 Bft) 100,00 %
27.12.2022 02:20 3,7 C 2,8 C 0,6 C 91 % 1023,3 hPa 0,0 l/m 0 min 0 min 0 W/m 16,1 km/h (3 Bft) 97,87 %
27.12.2022 02:22 3,7 C 2,8 C 0,6 C 91 % 1023,2 hPa 0,0 l/m 0 min 0 min 0 W/m 16,1 km/h (3 Bft) 97,87 %
27.12.2022 02:24 3,7 C 2,8 C 0,6 C 91 % 1023,3 hPa 0,0 l/m 0 min 0 min 0 W/m 12,9 km/h (3 Bft) 97,87 %
27.12.2022 02:26 3,7 C 2,8 C 0,6 C 91 % 1023,3 hPa 0,0 l/m 0 min 0 min 0 W/m 19,3 km/h (3 Bft) 95,74 %
27.12.2022 02:28 3,7 C 2,8 C 0,6 C 91 % 1023,3 hPa 0,0 l/m 0 min 0 min 0 W/m 19,3 km/h (3 Bft) 97,83 %
27.12.2022 02:30 3,7 C 2,8 C 0,6 C 91 % 1023,3 hPa 0,0 l/m 0 min 0 min 0 W/m 22,5 km/h (4 Bft) 100,00 %
27.12.2022 02:32 3,7 C 2,8 C 0,6 C 91 % 1023,4 hPa 0,0 l/m 0 min 0 min 0 W/m 22,5 km/h (4 Bft) 95,74 %
27.12.2022 02:34 3,7 C 2,8 C 0,6 C 91 % 1023,4 hPa 0,0 l/m 0 min 0 min 0 W/m 16,1 km/h (3 Bft) 100,00 %
27.12.2022 02:36 3,7 C 2,8 C 0,6 C 91 % 1023,4 hPa 0,0 l/m 0 min 0 min 0 W/m 22,5 km/h (4 Bft) 100,00 %
27.12.2022 02:38 3,8 C 2,8 C 0,6 C 91 % 1023,4 hPa 0,0 l/m 0 min 0 min 0 W/m 22,5 km/h (4 Bft) 95,74 %
27.12.2022 02:40 3,8 C 2,8 C 0,6 C 91 % 1023,4 hPa 0,0 l/m 0 min 0 min 0 W/m 29,0 km/h (5 Bft) 97,83 %
27.12.2022 02:42 3,8 C 3,3 C 0,6 C 91 % 1023,4 hPa 0,0 l/m 0 min 0 min 0 W/m 25,7 km/h (4 Bft) 97,87 %
27.12.2022 02:44 3,8 C 3,3 C 0,6 C 91 % 1023,5 hPa 0,0 l/m 0 min 0 min 0 W/m 16,1 km/h (3 Bft) 89,36 %
27.12.2022 02:46 3,8 C 2,8 C 0,6 C 91 % 1023,5 hPa 0,0 l/m 0 min 0 min 0 W/m 12,9 km/h (3 Bft) 97,87 %
27.12.2022 02:48 3,8 C 2,8 C 0,6 C 91 % 1023,4 hPa 0,0 l/m 0 min 0 min 0 W/m 16,1 km/h (3 Bft) 95,74 %
27.12.2022 02:50 3,8 C 2,8 C 0,6 C 91 % 1023,5 hPa 0,0 l/m 0 min 0 min 0 W/m 12,9 km/h (3 Bft) 95,74 %
27.12.2022 02:52 3,8 C 2,8 C 0,6 C 91 % 1023,5 hPa 0,0 l/m 0 min 0 min 0 W/m 16,1 km/h (3 Bft) 97,87 %
27.12.2022 02:54 3,8 C 2,8 C 0,6 C 91 % 1023,7 hPa 0,0 l/m 0 min 0 min 0 W/m 32,2 km/h (5 Bft) 97,83 %
27.12.2022 02:56 3,8 C 2,8 C 0,6 C 91 % 1023,6 hPa 0,0 l/m 0 min 0 min 0 W/m 9,7 km/h (2 Bft) 95,74 %
27.12.2022 02:58 3,7 C 2,8 C 0,6 C 91 % 1023,6 hPa 0,0 l/m 0 min 0 min 0 W/m 12,9 km/h (3 Bft) 95,74 %
27.12.2022 03:00 3,7 C 2,8 C 0,6 C 91 % 1023,6 hPa 0,0 l/m 0 min 0 min 0 W/m 12,9 km/h (3 Bft) 93,62 %
27.12.2022 03:02 3,7 C 2,8 C 0,6 C 92 % 1023,6 hPa 0,0 l/m 0 min 0 min 0 W/m 16,1 km/h (3 Bft) 97,87 %
27.12.2022 03:04 3,7 C 2,8 C 0,6 C 92 % 1023,7 hPa 0,0 l/m 0 min 0 min 0 W/m 12,9 km/h (3 Bft) 97,87 %
27.12.2022 03:06 3,7 C 2,8 C 0,6 C 92 % 1023,7 hPa 0,0 l/m 0 min 0 min 0 W/m 16,1 km/h (3 Bft) 95,65 %
27.12.2022 03:08 3,7 C 2,8 C 0,6 C 92 % 1023,7 hPa 0,0 l/m 0 min 0 min 0 W/m 16,1 km/h (3 Bft) 97,87 %
27.12.2022 03:10 3,7 C 2,8 C 0,6 C 92 % 1023,8 hPa 0,0 l/m 0 min 0 min 0 W/m 16,1 km/h (3 Bft) 95,74 %
27.12.2022 03:12 3,7 C 2,8 C 0,6 C 92 % 1023,8 hPa 0,0 l/m 0 min 0 min 0 W/m 19,3 km/h (3 Bft) 97,87 %
27.12.2022 03:14 3,7 C 2,8 C 0,6 C 92 % 1023,8 hPa 0,0 l/m 0 min 0 min 0 W/m 22,5 km/h (4 Bft) 95,74 %
27.12.2022 03:16 3,7 C 2,8 C 0,6 C 92 % 1023,9 hPa 0,0 l/m 0 min 0 min 0 W/m 9,7 km/h (2 Bft) 93,62 %
27.12.2022 03:18 3,7 C 2,8 C 0,6 C 92 % 1023,9 hPa 0,0 l/m 0 min 0 min 0 W/m 12,9 km/h (3 Bft) 100,00 %
27.12.2022 03:20 3,7 C 2,8 C 0,6 C 92 % 1023,9 hPa 0,0 l/m 0 min 0 min 0 W/m 25,7 km/h (4 Bft) 95,65 %
27.12.2022 03:22 3,8 C 2,8 C 0,6 C 92 % 1023,9 hPa 0,0 l/m 0 min 0 min 0 W/m 16,1 km/h (3 Bft) 100,00 %
27.12.2022 03:24 3,8 C 3,3 C 0,6 C 92 % 1024,0 hPa 0,0 l/m 0 min 0 min 0 W/m 22,5 km/h (4 Bft) 91,49 %
27.12.2022 03:26 3,8 C 3,3 C 0,6 C 92 % 1023,9 hPa 0,0 l/m 0 min 0 min 0 W/m 25,7 km/h (4 Bft) 100,00 %
27.12.2022 03:28 3,8 C 3,3 C 0,6 C 92 % 1023,9 hPa 0,0 l/m 0 min 0 min 0 W/m 19,3 km/h (3 Bft) 97,87 %
27.12.2022 03:30 3,8 C 3,3 C 0,6 C 92 % 1023,9 hPa 0,0 l/m 0 min 0 min 0 W/m 12,9 km/h (3 Bft) 100,00 %
27.12.2022 03:32 3,8 C 2,8 C 0,6 C 92 % 1023,9 hPa 0,0 l/m 0 min 0 min 0 W/m 12,9 km/h (3 Bft) 95,74 %
27.12.2022 03:34 3,8 C 2,8 C 0,6 C 92 % 1024,0 hPa 0,0 l/m 0 min 0 min 0 W/m 12,9 km/h (3 Bft) 97,83 %
27.12.2022 03:36 3,8 C 2,8 C 0,6 C 92 % 1023,9 hPa 0,0 l/m 0 min 0 min 0 W/m 22,5 km/h (4 Bft) 100,00 %
27.12.2022 03:38 3,8 C 2,8 C 0,6 C 92 % 1023,9 hPa 0,0 l/m 0 min 0 min 0 W/m 16,1 km/h (3 Bft) 96,36 %
27.12.2022 03:40 3,8 C 2,8 C 0,6 C 92 % 1023,9 hPa 0,0 l/m 0 min 0 min 0 W/m 19,3 km/h (3 Bft) 97,37 %
27.12.2022 03:42 3,8 C 2,8 C 0,6 C 92 % 1024,0 hPa 0,0 l/m 0 min 0 min 0 W/m 22,5 km/h (4 Bft) 95,83 %
27.12.2022 03:44 3,8 C 2,8 C 0,6 C 92 % 1023,9 hPa 0,0 l/m 0 min 0 min 0 W/m 9,7 km/h (2 Bft) 97,87 %
27.12.2022 03:46 3,8 C 2,8 C 0,6 C 93 % 1023,9 hPa 0,0 l/m 0 min 0 min 0 W/m 19,3 km/h (3 Bft) 97,83 %
27.12.2022 03:48 3,8 C 3,3 C 0,6 C 93 % 1023,9 hPa 0,0 l/m 0 min 0 min 0 W/m 22,5 km/h (4 Bft) 95,74 %
27.12.2022 03:50 3,8 C 2,8 C 0,6 C 93 % 1023,9 hPa 0,0 l/m 0 min 0 min 0 W/m 25,7 km/h (4 Bft) 95,74 %
27.12.2022 03:52 3,8 C 3,3 C 0,6 C 93 % 1023,9 hPa 0,0 l/m 0 min 0 min 0 W/m 22,5 km/h (4 Bft) 97,87 %
27.12.2022 03:54 3,8 C 3,3 C 0,6 C 92 % 1023,9 hPa 0,0 l/m 0 min 0 min 0 W/m 19,3 km/h (3 Bft) 97,87 %
27.12.2022 03:56 3,8 C 2,8 C 0,6 C 93 % 1023,9 hPa 0,0 l/m 0 min 0 min 0 W/m 16,1 km/h (3 Bft) 97,87 %
27.12.2022 03:58 3,8 C 2,8 C 0,6 C 92 % 1023,9 hPa 0,0 l/m 0 min 0 min 0 W/m 25,7 km/h (4 Bft) 97,83 %
27.12.2022 04:00 3,8 C 3,3 C 0,6 C 93 % 1023,9 hPa 0,0 l/m 0 min 0 min 0 W/m 16,1 km/h (3 Bft) 95,74 %
27.12.2022 04:02 3,8 C 3,3 C 0,6 C 93 % 1023,9 hPa 0,0 l/m 0 min 0 min 0 W/m 22,5 km/h (4 Bft) 93,62 %
27.12.2022 04:04 3,8 C 3,3 C 0,6 C 93 % 1023,9 hPa 0,0 l/m 0 min 0 min 0 W/m 22,5 km/h (4 Bft) 95,74 %
27.12.2022 04:06 3,8 C 3,3 C 0,6 C 93 % 1023,9 hPa 0,0 l/m 0 min 0 min 0 W/m 19,3 km/h (3 Bft) 91,49 %
27.12.2022 04:08 3,8 C 2,8 C 0,6 C 93 % 1023,9 hPa 0,0 l/m 0 min 0 min 0 W/m 16,1 km/h (3 Bft) 97,87 %
27.12.2022 04:10 3,8 C 2,8 C 0,6 C 93 % 1023,9 hPa 0,0 l/m 0 min 0 min 0 W/m 19,3 km/h (3 Bft) 97,87 %
27.12.2022 04:12 3,8 C 2,8 C 0,6 C 93 % 1023,9 hPa 0,0 l/m 0 min 0 min 0 W/m 16,1 km/h (3 Bft) 95,65 %
27.12.2022 04:14 3,8 C 2,8 C 0,6 C 93 % 1023,9 hPa 0,0 l/m 0 min 0 min 0 W/m 16,1 km/h (3 Bft) 93,62 %
27.12.2022 04:16 3,8 C 2,8 C 0,6 C 93 % 1023,9 hPa 0,0 l/m 0 min 0 min 0 W/m 12,9 km/h (3 Bft) 97,87 %
27.12.2022 04:18 3,8 C 2,8 C 0,6 C 93 % 1023,9 hPa 0,0 l/m 0 min 0 min 0 W/m 19,3 km/h (3 Bft) 97,87 %
27.12.2022 04:20 3,8 C 3,3 C 0,6 C 93 % 1023,9 hPa 0,0 l/m 0 min 0 min 0 W/m 19,3 km/h (3 Bft) 97,87 %
27.12.2022 04:22 3,8 C 3,3 C 0,6 C 93 % 1023,9 hPa 0,0 l/m 0 min 0 min 0 W/m 19,3 km/h (3 Bft) 97,87 %
27.12.2022 04:24 3,8 C 3,3 C 0,6 C 93 % 1024,0 hPa 0,0 l/m 0 min 0 min 0 W/m 12,9 km/h (3 Bft) 97,83 %
27.12.2022 04:26 3,8 C 2,8 C 0,6 C 93 % 1024,0 hPa 0,0 l/m 0 min 0 min 0 W/m 12,9 km/h (3 Bft) 95,74 %
27.12.2022 04:28 3,8 C 3,3 C 0,6 C 93 % 1024,0 hPa 0,0 l/m 0 min 0 min 0 W/m 25,7 km/h (4 Bft) 95,74 %
27.12.2022 04:30 3,8 C 3,3 C 0,6 C 93 % 1024,0 hPa 0,0 l/m 0 min 0 min 0 W/m 12,9 km/h (3 Bft) 95,74 %
27.12.2022 04:32 3,8 C 3,3 C 0,6 C 93 % 1024,0 hPa 0,0 l/m 0 min 0 min 0 W/m 12,9 km/h (3 Bft) 95,74 %
27.12.2022 04:34 3,8 C 3,3 C 0,6 C 93 % 1024,0 hPa 0,0 l/m 0 min 0 min 0 W/m 12,9 km/h (3 Bft) 95,74 %
27.12.2022 04:36 3,8 C 3,3 C 0,6 C 93 % 1024,0 hPa 0,0 l/m 0 min 0 min 0 W/m 29,0 km/h (5 Bft) 97,87 %
27.12.2022 04:38 3,9 C 3,3 C 0,6 C 93 % 1024,1 hPa 0,0 l/m 0 min 0 min 0 W/m 12,9 km/h (3 Bft) 95,65 %
27.12.2022 04:40 3,9 C 3,3 C 0,6 C 93 % 1024,0 hPa 0,0 l/m 0 min 0 min 0 W/m 29,0 km/h (5 Bft) 95,74 %
27.12.2022 04:42 3,9 C 3,3 C 0,6 C 93 % 1024,0 hPa 0,0 l/m 0 min 0 min 0 W/m 19,3 km/h (3 Bft) 95,74 %
27.12.2022 04:44 3,9 C 3,3 C 0,6 C 93 % 1024,0 hPa 0,0 l/m 0 min 0 min 0 W/m 22,5 km/h (4 Bft) 97,87 %
27.12.2022 04:46 3,9 C 3,3 C 0,6 C 93 % 1024,1 hPa 0,0 l/m 0 min 0 min 0 W/m 22,5 km/h (4 Bft) 95,74 %
27.12.2022 04:48 3,9 C 3,3 C 0,6 C 93 % 1024,0 hPa 0,0 l/m 0 min 0 min 0 W/m 32,2 km/h (5 Bft) 97,87 %
27.12.2022 04:50 4,0 C 3,3 C 0,6 C 93 % 1024,0 hPa 0,0 l/m 0 min 0 min 0 W/m 19,3 km/h (3 Bft) 93,48 %
27.12.2022 04:52 4,0 C 3,3 C 0,6 C 93 % 1024,0 hPa 0,0 l/m 0 min 0 min 0 W/m 22,5 km/h (4 Bft) 97,87 %
27.12.2022 04:54 4,0 C 3,3 C 0,6 C 93 % 1024,0 hPa 0,0 l/m 0 min 0 min 0 W/m 19,3 km/h (3 Bft) 100,00 %
27.12.2022 04:56 4,0 C 3,3 C 0,6 C 93 % 1024,0 hPa 0,0 l/m 0 min 0 min 0 W/m 25,7 km/h (4 Bft) 100,00 %
27.12.2022 04:58 4,0 C 3,3 C 0,6 C 93 % 1024,0 hPa 0,0 l/m 0 min 0 min 0 W/m 19,3 km/h (3 Bft) 97,87 %
27.12.2022 05:00 4,0 C 3,3 C 0,6 C 93 % 1024,0 hPa 0,0 l/m 0 min 0 min 0 W/m 25,7 km/h (4 Bft) 95,74 %
27.12.2022 05:02 4,0 C 3,3 C 0,6 C 93 % 1024,1 hPa 0,0 l/m 0 min 0 min 0 W/m 16,1 km/h (3 Bft) 95,74 %
27.12.2022 05:04 4,0 C 3,3 C 0,6 C 93 % 1024,1 hPa 0,0 l/m 0 min 0 min 0 W/m 16,1 km/h (3 Bft) 97,87 %
27.12.2022 05:06 4,0 C 3,3 C 0,6 C 93 % 1024,1 hPa 0,0 l/m 0 min 0 min 0 W/m 19,3 km/h (3 Bft) 97,87 %
27.12.2022 05:08 4,1 C 3,3 C 1,1 C 93 % 1024,1 hPa 0,0 l/m 0 min 0 min 0 W/m 19,3 km/h (3 Bft) 93,62 %
27.12.2022 05:10 4,1 C 3,3 C 1,1 C 93 % 1024,1 hPa 0,0 l/m 0 min 0 min 0 W/m 22,5 km/h (4 Bft) 97,87 %
27.12.2022 05:12 4,1 C 3,3 C 1,1 C 93 % 1024,0 hPa 0,0 l/m 0 min 0 min 0 W/m 25,7 km/h (4 Bft) 97,87 %
27.12.2022 05:14 4,1 C 3,3 C 1,1 C 93 % 1024,0 hPa 0,0 l/m 0 min 0 min 0 W/m 16,1 km/h (3 Bft) 97,83 %
27.12.2022 05:16 4,1 C 3,3 C 1,1 C 93 % 1024,0 hPa 0,0 l/m 0 min 0 min 0 W/m 19,3 km/h (3 Bft) 97,87 %
27.12.2022 05:18 4,1 C 3,3 C 1,1 C 93 % 1024,0 hPa 0,0 l/m 0 min 0 min 0 W/m 16,1 km/h (3 Bft) 95,74 %
27.12.2022 05:20 4,2 C 3,3 C 1,1 C 93 % 1023,9 hPa 0,0 l/m 0 min 0 min 0 W/m 19,3 km/h (3 Bft) 97,87 %
27.12.2022 05:22 4,2 C 3,3 C 1,1 C 93 % 1024,0 hPa 0,0 l/m 0 min 0 min 0 W/m 22,5 km/h (4 Bft) 95,74 %
27.12.2022 05:24 4,2 C 3,3 C 1,1 C 93 % 1024,0 hPa 0,0 l/m 0 min 0 min 0 W/m 29,0 km/h (5 Bft) 95,74 %
27.12.2022 05:26 4,2 C 3,3 C 1,1 C 93 % 1024,0 hPa 0,0 l/m 0 min 0 min 0 W/m 22,5 km/h (4 Bft) 95,74 %
27.12.2022 05:28 4,2 C 3,3 C 1,1 C 93 % 1024,0 hPa 0,0 l/m 0 min 0 min 0 W/m 35,4 km/h (5 Bft) 95,65 %
27.12.2022 05:30 4,2 C 3,3 C 1,1 C 93 % 1024,0 hPa 0,0 l/m 0 min 0 min 0 W/m 16,1 km/h (3 Bft) 91,49 %
27.12.2022 05:32 4,2 C 3,3 C 1,1 C 93 % 1024,0 hPa 0,0 l/m 0 min 0 min 0 W/m 9,7 km/h (2 Bft) 68,09 %
27.12.2022 05:34 4,2 C 3,3 C 1,1 C 93 % 1024,1 hPa 0,0 l/m 0 min 0 min 0 W/m 12,9 km/h (3 Bft) 62,96 %
27.12.2022 05:36 4,2 C 3,3 C 1,1 C 93 % 1024,0 hPa 0,0 l/m 0 min 0 min 0 W/m 25,7 km/h (4 Bft) 91,49 %
27.12.2022 05:38 4,2 C 3,9 C 1,1 C 93 % 1024,0 hPa 0,0 l/m 0 min 0 min 0 W/m 32,2 km/h (5 Bft) 95,74 %
27.12.2022 05:40 4,2 C 3,9 C 1,1 C 93 % 1024,0 hPa 0,0 l/m 0 min 0 min 0 W/m 25,7 km/h (4 Bft) 95,65 %
27.12.2022 05:42 4,3 C 3,9 C 1,1 C 93 % 1024,0 hPa 0,0 l/m 0 min 0 min 0 W/m 16,1 km/h (3 Bft) 95,74 %
27.12.2022 05:44 4,3 C 3,3 C 1,1 C 93 % 1024,0 hPa 0,2 l/m 0 min 0 min 0 W/m 22,5 km/h (4 Bft) 97,87 %
27.12.2022 05:46 4,3 C 3,3 C 1,1 C 93 % 1024,1 hPa 0,0 l/m 0 min 0 min 0 W/m 25,7 km/h (4 Bft) 95,74 %
27.12.2022 05:48 4,3 C 3,3 C 1,1 C 93 % 1024,0 hPa 0,0 l/m 0 min 0 min 0 W/m 41,8 km/h (6 Bft) 97,87 %
27.12.2022 05:50 4,3 C 3,3 C 1,1 C 93 % 1024,1 hPa 0,0 l/m 0 min 0 min 0 W/m 16,1 km/h (3 Bft) 95,74 %
27.12.2022 05:52 4,3 C 3,3 C 1,1 C 93 % 1024,0 hPa 0,0 l/m 0 min 0 min 0 W/m 19,3 km/h (3 Bft) 97,83 %
27.12.2022 05:54 4,2 C 3,3 C 1,1 C 93 % 1024,1 hPa 0,0 l/m 0 min 0 min 0 W/m 22,5 km/h (4 Bft) 97,87 %
27.12.2022 05:56 4,2 C 3,3 C 1,1 C 93 % 1024,1 hPa 0,0 l/m 0 min 0 min 0 W/m 25,7 km/h (4 Bft) 95,74 %
27.12.2022 05:58 4,2 C 3,3 C 1,1 C 93 % 1024,1 hPa 0,0 l/m 0 min 0 min 0 W/m 12,9 km/h (3 Bft) 97,87 %
27.12.2022 06:00 4,2 C 3,3 C 1,1 C 93 % 1024,2 hPa 0,0 l/m 0 min 0 min 0 W/m 16,1 km/h (3 Bft) 97,87 %
27.12.2022 06:02 4,2 C 3,3 C 1,1 C 93 % 1024,2 hPa 0,0 l/m 0 min 0 min 0 W/m 16,1 km/h (3 Bft) 100,00 %
27.12.2022 06:04 4,2 C 3,3 C 1,1 C 93 % 1024,3 hPa 0,0 l/m 0 min 0 min 0 W/m 12,9 km/h (3 Bft) 95,74 %
27.12.2022 06:08 4,1 C 3,3 C 0,6 C 93 % 1024,2 hPa 0,0 l/m 0 min 0 min 0 W/m 12,9 km/h (3 Bft) 100,00 %
27.12.2022 06:10 4,1 C 3,3 C 0,6 C 93 % 1024,3 hPa 0,0 l/m 0 min 0 min 0 W/m 12,9 km/h (3 Bft) 100,00 %
27.12.2022 06:12 4,1 C 3,3 C 0,6 C 93 % 1024,4 hPa 0,0 l/m 0 min 0 min 0 W/m 16,1 km/h (3 Bft) 100,00 %
27.12.2022 06:14 4,1 C 3,3 C 0,6 C 93 % 1024,5 hPa 0,0 l/m 0 min 0 min 0 W/m 19,3 km/h (3 Bft) 100,00 %
27.12.2022 06:16 4,1 C 3,3 C 0,6 C 93 % 1024,6 hPa 0,0 l/m 0 min 0 min 0 W/m 12,9 km/h (3 Bft) 95,65 %
27.12.2022 06:18 4,1 C 3,3 C 0,6 C 93 % 1024,6 hPa 0,0 l/m 0 min 0 min 0 W/m 16,1 km/h (3 Bft) 100,00 %
27.12.2022 06:20 4,1 C 3,3 C 0,6 C 93 % 1024,6 hPa 0,0 l/m 0 min 0 min 0 W/m 22,5 km/h (4 Bft) 100,00 %
27.12.2022 06:22 4,1 C 3,3 C 0,6 C 93 % 1024,6 hPa 0,0 l/m 0 min 0 min 0 W/m 22,5 km/h (4 Bft) 100,00 %
27.12.2022 06:24 4,1 C 3,3 C 0,6 C 93 % 1024,6 hPa 0,0 l/m 0 min 0 min 0 W/m 6,4 km/h (2 Bft) 100,00 %
27.12.2022 06:26 4,0 C 3,3 C 0,6 C 93 % 1024,6 hPa 0,0 l/m 0 min 0 min 0 W/m 12,9 km/h (3 Bft) 100,00 %
27.12.2022 06:28 4,0 C 3,3 C 0,6 C 93 % 1024,7 hPa 0,0 l/m 0 min 0 min 0 W/m 12,9 km/h (3 Bft) 100,00 %
27.12.2022 06:30 4,0 C 3,3 C 0,6 C 93 % 1024,7 hPa 0,0 l/m 0 min 0 min 0 W/m 19,3 km/h (3 Bft) 100,00 %
27.12.2022 06:32 3,9 C 3,3 C 0,6 C 93 % 1024,8 hPa 0,0 l/m 0 min 0 min 0 W/m 12,9 km/h (3 Bft) 97,87 %
27.12.2022 06:34 3,9 C 3,3 C 0,6 C 93 % 1024,7 hPa 0,0 l/m 0 min 0 min 0 W/m 12,9 km/h (3 Bft) 100,00 %
27.12.2022 06:36 3,9 C 2,8 C 0,6 C 93 % 1024,7 hPa 0,0 l/m 0 min 0 min 0 W/m 12,9 km/h (3 Bft) 100,00 %
27.12.2022 06:38 3,9 C 2,8 C 0,6 C 93 % 1024,7 hPa 0,0 l/m 0 min 0 min 0 W/m 6,4 km/h (2 Bft) 100,00 %
27.12.2022 06:40 3,9 C 2,8 C 0,6 C 93 % 1024,7 hPa 0,0 l/m 0 min 0 min 0 W/m 12,9 km/h (3 Bft) 97,87 %
27.12.2022 06:42 3,9 C 2,8 C 0,6 C 93 % 1024,7 hPa 0,0 l/m 0 min 0 min 0 W/m 12,9 km/h (3 Bft) 100,00 %
27.12.2022 06:44 3,8 C 2,8 C 0,6 C 93 % 1024,7 hPa 0,0 l/m 0 min 0 min 0 W/m 12,9 km/h (3 Bft) 97,87 %
27.12.2022 06:46 3,8 C 2,8 C 0,6 C 93 % 1024,8 hPa 0,0 l/m 0 min 0 min 0 W/m 6,4 km/h (2 Bft) 100,00 %
27.12.2022 06:48 3,8 C 2,8 C 0,6 C 93 % 1024,9 hPa 0,0 l/m 0 min 0 min 0 W/m 9,7 km/h (2 Bft) 100,00 %
27.12.2022 06:50 3,8 C 2,8 C 0,6 C 93 % 1024,9 hPa 0,0 l/m 0 min 0 min 0 W/m 6,4 km/h (2 Bft) 100,00 %
27.12.2022 06:52 3,8 C 2,8 C 0,6 C 93 % 1024,9 hPa 0,0 l/m 0 min 0 min 0 W/m 6,4 km/h (2 Bft) 100,00 %
27.12.2022 06:54 3,7 C 2,8 C 0,6 C 93 % 1025,0 hPa 0,0 l/m 0 min 0 min 0 W/m 6,4 km/h (2 Bft) 100,00 %
27.12.2022 06:56 3,7 C 2,8 C 0,6 C 93 % 1025,0 hPa 0,0 l/m 0 min 0 min 0 W/m 12,9 km/h (3 Bft) 100,00 %
27.12.2022 06:58 3,7 C 2,8 C 0,6 C 93 % 1025,0 hPa 0,0 l/m 0 min 0 min 0 W/m 12,9 km/h (3 Bft) 100,00 %
27.12.2022 07:00 3,7 C 2,8 C 0,6 C 93 % 1025,0 hPa 0,0 l/m 0 min 0 min 0 W/m 6,4 km/h (2 Bft) 97,87 %
27.12.2022 07:02 3,7 C 2,8 C 0,6 C 93 % 1025,0 hPa 0,0 l/m 0 min 0 min 0 W/m 19,3 km/h (3 Bft) 95,74 %
27.12.2022 07:04 3,7 C 2,8 C 0,6 C 93 % 1025,0 hPa 0,0 l/m 0 min 0 min 0 W/m 6,4 km/h (2 Bft) 95,74 %
27.12.2022 07:06 3,7 C 2,8 C 0,6 C 94 % 1025,0 hPa 0,0 l/m 0 min 0 min 0 W/m 9,7 km/h (2 Bft) 97,87 %
27.12.2022 07:08 3,7 C 2,8 C 0,6 C 93 % 1025,0 hPa 0,0 l/m 0 min 0 min 0 W/m 6,4 km/h (2 Bft) 97,83 %
27.12.2022 07:10 3,7 C 2,8 C 0,6 C 93 % 1025,0 hPa 0,0 l/m 0 min 0 min 0 W/m 12,9 km/h (3 Bft) 97,87 %
27.12.2022 07:12 3,7 C 2,8 C 0,6 C 93 % 1025,0 hPa 0,0 l/m 0 min 0 min 0 W/m 9,7 km/h (2 Bft) 95,74 %
27.12.2022 07:14 3,7 C 2,8 C 0,6 C 93 % 1024,9 hPa 0,0 l/m 0 min 0 min 0 W/m 6,4 km/h (2 Bft) 95,74 %
27.12.2022 07:16 3,6 C 2,8 C 0,6 C 94 % 1025,0 hPa 0,0 l/m 0 min 0 min 0 W/m 12,9 km/h (3 Bft) 95,74 %
27.12.2022 07:18 3,6 C 2,8 C 0,6 C 94 % 1025,0 hPa 0,0 l/m 0 min 0 min 0 W/m 6,4 km/h (2 Bft) 95,74 %
27.12.2022 07:20 3,6 C 2,8 C 0,6 C 94 % 1025,0 hPa 0,0 l/m 0 min 0 min 0 W/m 6,4 km/h (2 Bft) 95,74 %
27.12.2022 07:22 3,6 C 2,8 C 0,6 C 94 % 1025,1 hPa 0,0 l/m 0 min 0 min 0 W/m 12,9 km/h (3 Bft) 93,62 %
27.12.2022 07:24 3,6 C 2,8 C 0,6 C 94 % 1025,2 hPa 0,0 l/m 0 min 0 min 0 W/m 12,9 km/h (3 Bft) 97,83 %
27.12.2022 07:26 3,6 C 2,8 C 0,6 C 94 % 1025,2 hPa 0,0 l/m 0 min 0 min 0 W/m 6,4 km/h (2 Bft) 93,62 %
27.12.2022 07:28 3,6 C 2,8 C 0,6 C 94 % 1025,2 hPa 0,0 l/m 0 min 0 min 0 W/m 9,7 km/h (2 Bft) 93,62 %
27.12.2022 07:30 3,6 C 2,8 C 0,6 C 94 % 1025,3 hPa 0,0 l/m 0 min 0 min 0 W/m 9,7 km/h (2 Bft) 93,62 %
27.12.2022 07:32 3,6 C 2,8 C 0,6 C 94 % 1025,3 hPa 0,0 l/m 0 min 0 min 0 W/m 12,9 km/h (3 Bft) 93,62 %
27.12.2022 07:34 3,6 C 2,8 C 0,6 C 94 % 1025,2 hPa 0,0 l/m 0 min 0 min 0 W/m 12,9 km/h (3 Bft) 91,49 %
27.12.2022 07:36 3,6 C 2,8 C 0,6 C 94 % 1025,2 hPa 0,0 l/m 0 min 0 min 0 W/m 12,9 km/h (3 Bft) 93,48 %
27.12.2022 07:38 3,6 C 2,8 C 0,6 C 94 % 1025,2 hPa 0,0 l/m 0 min 0 min 0 W/m 12,9 km/h (3 Bft) 96,55 %
27.12.2022 07:40 3,6 C 2,8 C 0,6 C 94 % 1025,2 hPa 0,0 l/m 0 min 0 min 0 W/m 12,9 km/h (3 Bft) 93,62 %
27.12.2022 07:42 3,6 C 2,8 C 0,6 C 94 % 1025,2 hPa 0,0 l/m 0 min 0 min 0 W/m 6,4 km/h (2 Bft) 97,87 %
27.12.2022 07:44 3,6 C 2,8 C 0,6 C 94 % 1025,2 hPa 0,0 l/m 0 min 0 min 0 W/m 6,4 km/h (2 Bft) 95,74 %
27.12.2022 07:46 3,6 C 2,8 C 0,6 C 94 % 1025,2 hPa 0,0 l/m 0 min 0 min 0 W/m 9,7 km/h (2 Bft) 93,62 %
27.12.2022 07:48 3,5 C 2,8 C 0,6 C 94 % 1025,2 hPa 0,0 l/m 0 min 0 min 0 W/m 16,1 km/h (3 Bft) 97,83 %
27.12.2022 07:50 3,5 C 2,8 C 0,6 C 94 % 1025,2 hPa 0,0 l/m 0 min 0 min 0 W/m 9,7 km/h (2 Bft) 93,62 %
27.12.2022 07:52 3,6 C 2,8 C 0,6 C 94 % 1025,3 hPa 0,0 l/m 0 min 0 min 0 W/m 19,3 km/h (3 Bft) 91,49 %
27.12.2022 07:54 3,6 C 2,8 C 0,6 C 94 % 1025,2 hPa 0,0 l/m 0 min 0 min 0 W/m 9,7 km/h (2 Bft) 95,74 %
27.12.2022 07:56 3,6 C 2,8 C 0,6 C 94 % 1025,3 hPa 0,0 l/m 0 min 0 min 0 W/m 6,4 km/h (2 Bft) 93,62 %
27.12.2022 07:58 3,6 C 2,8 C 0,6 C 94 % 1025,2 hPa 0,0 l/m 0 min 0 min 0 W/m 6,4 km/h (2 Bft) 93,62 %
27.12.2022 08:00 3,6 C 2,8 C 0,6 C 94 % 1025,3 hPa 0,0 l/m 0 min 0 min 0 W/m 12,9 km/h (3 Bft) 95,74 %
27.12.2022 08:02 3,6 C 2,8 C 0,6 C 94 % 1025,3 hPa 0,0 l/m 0 min 0 min 0 W/m 12,9 km/h (3 Bft) 97,83 %
27.12.2022 08:04 3,6 C 2,8 C 0,6 C 94 % 1025,3 hPa 0,0 l/m 0 min 0 min 0 W/m 9,7 km/h (2 Bft) 100,00 %
27.12.2022 08:06 3,6 C 2,8 C 0,6 C 94 % 1025,4 hPa 0,0 l/m 0 min 0 min 0 W/m 6,4 km/h (2 Bft) 97,87 %
27.12.2022 08:08 3,6 C 2,8 C 0,6 C 94 % 1025,4 hPa 0,0 l/m 0 min 0 min 0 W/m 9,7 km/h (2 Bft) 95,74 %
27.12.2022 08:10 3,6 C 2,8 C 0,6 C 94 % 1025,5 hPa 0,0 l/m 0 min 0 min 0 W/m 19,3 km/h (3 Bft) 100,00 %
27.12.2022 08:12 3,6 C 2,8 C 0,6 C 94 % 1025,4 hPa 0,0 l/m 0 min 0 min 0 W/m 6,4 km/h (2 Bft) 100,00 %
27.12.2022 08:14 3,6 C 2,8 C 0,6 C 94 % 1025,5 hPa 0,0 l/m 0 min 0 min 0 W/m 12,9 km/h (3 Bft) 95,74 %
27.12.2022 08:16 3,6 C 2,8 C 0,6 C 94 % 1025,5 hPa 0,0 l/m 0 min 0 min 0 W/m 12,9 km/h (3 Bft) 100,00 %
27.12.2022 08:18 3,6 C 2,8 C 0,6 C 94 % 1025,5 hPa 0,0 l/m 0 min 0 min 0 W/m 12,9 km/h (3 Bft) 100,00 %
27.12.2022 08:20 3,6 C 2,8 C 0,6 C 94 % 1025,6 hPa 0,0 l/m 0 min 0 min 0 W/m 6,4 km/h (2 Bft) 97,87 %
27.12.2022 08:22 3,6 C 2,8 C 0,6 C 94 % 1025,6 hPa 0,0 l/m 0 min 0 min 0 W/m 3,2 km/h (1 Bft) 47,37 %
27.12.2022 08:24 3,6 C 2,8 C 0,6 C 94 % 1025,6 hPa 0,0 l/m 0 min 0 min 0 W/m 6,4 km/h (2 Bft) 100,00 %
27.12.2022 08:26 3,6 C 2,8 C 0,6 C 94 % 1025,6 hPa 0,0 l/m 0 min 0 min 0 W/m 9,7 km/h (2 Bft) 100,00 %
27.12.2022 08:28 3,5 C 2,8 C 0,6 C 94 % 1025,7 hPa 0,0 l/m 0 min 0 min 0 W/m 6,4 km/h (2 Bft) 100,00 %
27.12.2022 08:30 3,5 C 2,8 C 0,6 C 94 % 1025,7 hPa 0,0 l/m 0 min 0 min 0 W/m 12,9 km/h (3 Bft) 100,00 %
27.12.2022 08:32 3,5 C 2,8 C 0,6 C 94 % 1025,7 hPa 0,0 l/m 0 min 0 min 0 W/m 9,7 km/h (2 Bft) 97,87 %
27.12.2022 08:34 3,5 C 2,8 C 0,6 C 94 % 1025,7 hPa 0,0 l/m 0 min 0 min 0 W/m 9,7 km/h (2 Bft) 100,00 %
27.12.2022 08:36 3,5 C 2,8 C 0,6 C 94 % 1025,7 hPa 0,0 l/m 0 min 0 min 0 W/m 9,7 km/h (2 Bft) 100,00 %
27.12.2022 08:38 3,5 C 2,8 C 0,0 C 94 % 1025,6 hPa 0,0 l/m 0 min 0 min 0 W/m 3,2 km/h (1 Bft) 100,00 %
27.12.2022 08:40 3,5 C 2,8 C 0,6 C 94 % 1025,7 hPa 0,0 l/m 0 min 0 min 2 W/m 16,1 km/h (3 Bft) 100,00 %
27.12.2022 08:42 3,5 C 2,8 C 0,6 C 94 % 1025,7 hPa 0,0 l/m 0 min 0 min 5 W/m 16,1 km/h (3 Bft) 100,00 %
27.12.2022 08:44 3,5 C 2,8 C 0,6 C 94 % 1025,7 hPa 0,0 l/m 0 min 0 min 5 W/m 12,9 km/h (3 Bft) 100,00 %
27.12.2022 08:46 3,5 C 2,8 C 0,6 C 94 % 1025,8 hPa 0,0 l/m 0 min 0 min 5 W/m 12,9 km/h (3 Bft) 100,00 %
27.12.2022 08:48 3,5 C 2,8 C 0,6 C 95 % 1025,7 hPa 0,0 l/m 0 min 0 min 7 W/m 12,9 km/h (3 Bft) 97,87 %
27.12.2022 08:50 3,5 C 2,8 C 0,6 C 95 % 1025,7 hPa 0,0 l/m 0 min 0 min 7 W/m 6,4 km/h (2 Bft) 97,87 %
27.12.2022 08:52 3,5 C 2,8 C 0,6 C 95 % 1025,8 hPa 0,0 l/m 0 min 0 min 9 W/m 16,1 km/h (3 Bft) 100,00 %
27.12.2022 08:54 3,5 C 2,8 C 0,6 C 95 % 1025,7 hPa 0,0 l/m 0 min 0 min 9 W/m 9,7 km/h (2 Bft) 100,00 %
27.12.2022 08:56 3,5 C 2,8 C 0,6 C 95 % 1025,6 hPa 0,0 l/m 0 min 0 min 10 W/m 12,9 km/h (3 Bft) 100,00 %
27.12.2022 08:58 3,5 C 2,8 C 0,6 C 95 % 1025,7 hPa 0,0 l/m 0 min 0 min 11 W/m 6,4 km/h (2 Bft) 93,62 %
27.12.2022 09:00 3,5 C 2,8 C 0,6 C 95 % 1025,7 hPa 0,0 l/m 0 min 0 min 12 W/m 12,9 km/h (3 Bft) 100,00 %
27.12.2022 09:02 3,5 C 2,8 C 0,6 C 95 % 1025,7 hPa 0,0 l/m 0 min 0 min 12 W/m 6,4 km/h (2 Bft) 98,08 %
27.12.2022 09:04 3,5 C 2,8 C 0,6 C 95 % 1025,8 hPa 0,0 l/m 0 min 0 min 12 W/m 6,4 km/h (2 Bft) 100,00 %
27.12.2022 09:06 3,5 C 2,8 C 0,6 C 95 % 1025,9 hPa 0,0 l/m 0 min 0 min 14 W/m 12,9 km/h (3 Bft) 100,00 %
27.12.2022 09:08 3,5 C 2,8 C 0,6 C 95 % 1025,8 hPa 0,0 l/m 0 min 0 min 14 W/m 9,7 km/h (2 Bft) 97,87 %
27.12.2022 09:10 3,6 C 2,8 C 0,6 C 95 % 1025,9 hPa 0,0 l/m 0 min 0 min 16 W/m 12,9 km/h (3 Bft) 97,83 %
27.12.2022 09:12 3,6 C 3,3 C 0,6 C 95 % 1025,9 hPa 0,0 l/m 0 min 0 min 16 W/m 22,5 km/h (4 Bft) 97,87 %
27.12.2022 09:14 3,6 C 3,3 C 0,6 C 95 % 1025,8 hPa 0,0 l/m 0 min 0 min 16 W/m 16,1 km/h (3 Bft) 95,74 %
27.12.2022 09:16 3,6 C 3,3 C 0,6 C 95 % 1025,9 hPa 0,0 l/m 0 min 0 min 18 W/m 16,1 km/h (3 Bft) 97,87 %
27.12.2022 09:18 3,7 C 3,3 C 0,6 C 95 % 1025,9 hPa 0,0 l/m 0 min 0 min 18 W/m 12,9 km/h (3 Bft) 97,87 %
27.12.2022 09:20 3,7 C 3,3 C 0,6 C 95 % 1025,9 hPa 0,0 l/m 0 min 0 min 19 W/m 25,7 km/h (4 Bft) 97,87 %
27.12.2022 09:22 3,7 C 3,3 C 0,6 C 95 % 1025,9 hPa 0,0 l/m 0 min 0 min 19 W/m 16,1 km/h (3 Bft) 97,83 %
27.12.2022 09:24 3,7 C 3,3 C 0,6 C 95 % 1025,9 hPa 0,0 l/m 0 min 0 min 20 W/m 9,7 km/h (2 Bft) 95,74 %
27.12.2022 09:26 3,7 C 3,3 C 0,6 C 95 % 1025,9 hPa 0,0 l/m 0 min 0 min 22 W/m 9,7 km/h (2 Bft) 97,87 %
27.12.2022 09:28 3,8 C 3,3 C 0,6 C 95 % 1025,9 hPa 0,0 l/m 0 min 0 min 24 W/m 22,5 km/h (4 Bft) 97,87 %
27.12.2022 09:30 3,8 C 3,3 C 1,1 C 95 % 1025,9 hPa 0,0 l/m 0 min 0 min 32 W/m 12,9 km/h (3 Bft) 97,87 %
27.12.2022 09:32 3,8 C 3,3 C 1,1 C 95 % 1025,9 hPa 0,0 l/m 0 min 0 min 34 W/m 16,1 km/h (3 Bft) 97,87 %
27.12.2022 09:34 3,8 C 3,3 C 1,1 C 95 % 1025,8 hPa 0,0 l/m 0 min 0 min 30 W/m 19,3 km/h (3 Bft) 97,87 %
27.12.2022 09:36 3,8 C 3,9 C 1,1 C 95 % 1025,9 hPa 0,0 l/m 0 min 0 min 34 W/m 16,1 km/h (3 Bft) 97,83 %
27.12.2022 09:38 3,9 C 3,9 C 1,1 C 95 % 1025,9 hPa 0,0 l/m 0 min 0 min 37 W/m 19,3 km/h (3 Bft) 97,87 %
27.12.2022 09:40 3,9 C 3,9 C 1,1 C 95 % 1025,9 hPa 0,0 l/m 0 min 0 min 32 W/m 16,1 km/h (3 Bft) 95,74 %
27.12.2022 09:42 4,0 C 3,9 C 1,1 C 95 % 1025,9 hPa 0,0 l/m 0 min 0 min 27 W/m 19,3 km/h (3 Bft) 93,62 %
27.12.2022 09:44 4,0 C 3,9 C 1,1 C 95 % 1025,9 hPa 0,0 l/m 0 min 0 min 26 W/m 16,1 km/h (3 Bft) 95,74 %
27.12.2022 09:46 4,1 C 3,9 C 1,1 C 95 % 1025,9 hPa 0,0 l/m 0 min 0 min 27 W/m 16,1 km/h (3 Bft) 97,87 %
27.12.2022 09:48 4,1 C 3,9 C 1,1 C 95 % 1026,0 hPa 0,0 l/m 0 min 0 min 28 W/m 12,9 km/h (3 Bft) 97,83 %
27.12.2022 09:50 4,1 C 3,9 C 1,1 C 95 % 1026,0 hPa 0,0 l/m 0 min 0 min 30 W/m 19,3 km/h (3 Bft) 97,87 %
27.12.2022 09:52 4,1 C 3,9 C 1,1 C 95 % 1026,1 hPa 0,0 l/m 0 min 0 min 31 W/m 12,9 km/h (3 Bft) 95,74 %
27.12.2022 09:54 4,1 C 3,9 C 1,1 C 95 % 1026,1 hPa 0,0 l/m 0 min 0 min 32 W/m 22,5 km/h (4 Bft) 97,87 %
27.12.2022 09:56 4,2 C 3,9 C 1,1 C 94 % 1026,1 hPa 0,0 l/m 0 min 0 min 33 W/m 16,1 km/h (3 Bft) 95,74 %
27.12.2022 09:58 4,2 C 3,9 C 1,1 C 94 % 1026,1 hPa 0,0 l/m 0 min 0 min 35 W/m 22,5 km/h (4 Bft) 97,87 %
27.12.2022 10:00 4,2 C 3,9 C 1,1 C 94 % 1026,1 hPa 0,0 l/m 0 min 0 min 35 W/m 25,7 km/h (4 Bft) 97,87 %
27.12.2022 10:02 4,3 C 3,9 C 1,7 C 94 % 1026,0 hPa 0,0 l/m 0 min 0 min 35 W/m 32,2 km/h (5 Bft) 97,83 %
27.12.2022 10:04 4,3 C 3,9 C 1,7 C 94 % 1026,0 hPa 0,0 l/m 0 min 0 min 35 W/m 16,1 km/h (3 Bft) 95,74 %
27.12.2022 10:06 4,3 C 3,9 C 1,7 C 94 % 1026,0 hPa 0,0 l/m 0 min 0 min 37 W/m 19,3 km/h (3 Bft) 97,87 %
27.12.2022 10:08 4,4 C 3,9 C 1,7 C 94 % 1026,1 hPa 0,0 l/m 0 min 0 min 38 W/m 22,5 km/h (4 Bft) 95,74 %
27.12.2022 10:10 4,4 C 4,4 C 1,7 C 94 % 1026,1 hPa 0,0 l/m 0 min 0 min 42 W/m 16,1 km/h (3 Bft) 95,74 %
27.12.2022 10:12 4,4 C 4,4 C 1,7 C 94 % 1026,1 hPa 0,0 l/m 0 min 0 min 51 W/m 19,3 km/h (3 Bft) 97,87 %
27.12.2022 10:14 4,5 C 4,4 C 1,7 C 94 % 1026,1 hPa 0,0 l/m 0 min 0 min 62 W/m 16,1 km/h (3 Bft) 95,74 %
27.12.2022 10:16 4,6 C 4,4 C 1,7 C 94 % 1026,1 hPa 0,0 l/m 0 min 0 min 81 W/m 22,5 km/h (4 Bft) 95,65 %
27.12.2022 10:18 4,6 C 5,0 C 1,7 C 94 % 1026,1 hPa 0,0 l/m 0 min 0 min 89 W/m 25,7 km/h (4 Bft) 93,62 %
27.12.2022 10:20 4,7 C 5,0 C 1,7 C 94 % 1026,1 hPa 0,0 l/m 0 min 0 min 87 W/m 22,5 km/h (4 Bft) 95,74 %
27.12.2022 10:22 4,7 C 4,4 C 1,7 C 94 % 1026,1 hPa 0,0 l/m 0 min 0 min 76 W/m 29,0 km/h (5 Bft) 93,62 %
27.12.2022 10:24 4,8 C 4,4 C 1,7 C 94 % 1026,1 hPa 0,0 l/m 0 min 0 min 84 W/m 12,9 km/h (3 Bft) 97,87 %
27.12.2022 10:26 4,8 C 4,4 C 1,7 C 94 % 1026,2 hPa 0,0 l/m 0 min 0 min 96 W/m 22,5 km/h (4 Bft) 100,00 %
27.12.2022 10:28 4,8 C 4,4 C 1,7 C 94 % 1026,1 hPa 0,0 l/m 2 min 0 min 109 W/m 19,3 km/h (3 Bft) 97,87 %
27.12.2022 10:30 4,8 C 4,4 C 1,7 C 93 % 1026,2 hPa 0,0 l/m 2 min 0 min 124 W/m 12,9 km/h (3 Bft) 97,87 %
27.12.2022 10:32 4,9 C 4,4 C 1,7 C 93 % 1026,2 hPa 0,0 l/m 2 min 0 min 150 W/m 16,1 km/h (3 Bft) 94,74 %
27.12.2022 10:34 4,9 C 5,0 C 1,7 C 93 % 1026,2 hPa 0,0 l/m 2 min 0 min 158 W/m 16,1 km/h (3 Bft) 95,74 %
27.12.2022 10:36 4,9 C 5,0 C 2,2 C 93 % 1026,2 hPa 0,0 l/m 2 min 0 min 162 W/m 19,3 km/h (3 Bft) 97,83 %
27.12.2022 10:38 5,0 C 5,0 C 2,2 C 93 % 1026,2 hPa 0,0 l/m 2 min 0 min 166 W/m 12,9 km/h (3 Bft) 95,74 %
27.12.2022 10:40 5,0 C 5,0 C 2,2 C 93 % 1026,2 hPa 0,0 l/m 2 min 0 min 168 W/m 12,9 km/h (3 Bft) 100,00 %
27.12.2022 10:45 5,1 C 5,0 C 2,2 C 93 % 1026,1 hPa 0,0 l/m 5 min 0 min 175 W/m 25,7 km/h (4 Bft) 95,24 %
27.12.2022 10:46 5,1 C 5,0 C 2,2 C 93 % 1026,1 hPa 0,0 l/m 1 min 0 min 172 W/m 9,7 km/h (2 Bft) 100,00 %
27.12.2022 10:50 5,2 C 5,0 C 2,2 C 93 % 1026,1 hPa 0,0 l/m 4 min 0 min 171 W/m 16,1 km/h (3 Bft) 97,22 %
27.12.2022 10:52 5,2 C 5,0 C 2,2 C 93 % 1026,0 hPa 0,0 l/m 2 min 0 min 179 W/m 12,9 km/h (3 Bft) 97,56 %
27.12.2022 10:54 5,2 C 5,0 C 2,2 C 93 % 1026,1 hPa 0,0 l/m 2 min 0 min 188 W/m 22,5 km/h (4 Bft) 98,00 %
27.12.2022 10:56 5,2 C 5,0 C 2,2 C 93 % 1026,1 hPa 0,0 l/m 2 min 0 min 184 W/m 25,7 km/h (4 Bft) 100,00 %
27.12.2022 10:58 5,3 C 5,0 C 2,2 C 93 % 1026,1 hPa 0,0 l/m 2 min 0 min 187 W/m 16,1 km/h (3 Bft) 97,87 %
27.12.2022 11:00 5,3 C 5,0 C 2,2 C 93 % 1026,1 hPa 0,0 l/m 2 min 0 min 191 W/m 19,3 km/h (3 Bft) 100,00 %
27.12.2022 11:02 5,4 C 5,0 C 2,2 C 92 % 1026,1 hPa 0,0 l/m 2 min 0 min 191 W/m 22,5 km/h (4 Bft) 100,00 %
27.12.2022 11:04 5,4 C 5,6 C 2,2 C 92 % 1026,1 hPa 0,0 l/m 2 min 0 min 195 W/m 12,9 km/h (3 Bft) 97,87 %
27.12.2022 11:06 5,4 C 5,6 C 2,2 C 92 % 1026,1 hPa 0,0 l/m 2 min 0 min 196 W/m 19,3 km/h (3 Bft) 100,00 %
27.12.2022 11:08 5,4 C 5,6 C 2,2 C 92 % 1026,2 hPa 0,0 l/m 2 min 0 min 199 W/m 19,3 km/h (3 Bft) 100,00 %
27.12.2022 11:10 5,5 C 5,6 C 2,2 C 92 % 1026,1 hPa 0,0 l/m 2 min 0 min 200 W/m 25,7 km/h (4 Bft) 100,00 %
27.12.2022 11:12 5,6 C 5,6 C 2,8 C 92 % 1026,1 hPa 0,0 l/m 2 min 0 min 186 W/m 16,1 km/h (3 Bft) 100,00 %
27.12.2022 11:14 5,6 C 5,6 C 2,8 C 92 % 1026,1 hPa 0,0 l/m 2 min 0 min 167 W/m 19,3 km/h (3 Bft) 97,87 %
27.12.2022 11:16 5,7 C 5,6 C 2,8 C 92 % 1026,0 hPa 0,0 l/m 2 min 0 min 151 W/m 19,3 km/h (3 Bft) 100,00 %
27.12.2022 11:18 5,7 C 5,6 C 2,8 C 92 % 1026,1 hPa 0,0 l/m 0 min 0 min 126 W/m 12,9 km/h (3 Bft) 100,00 %
27.12.2022 11:20 5,7 C 5,6 C 2,8 C 92 % 1026,0 hPa 0,0 l/m 2 min 0 min 146 W/m 16,1 km/h (3 Bft) 100,00 %
27.12.2022 11:22 5,8 C 5,6 C 2,8 C 92 % 1026,1 hPa 0,0 l/m 0 min 0 min 132 W/m 16,1 km/h (3 Bft) 100,00 %
27.12.2022 11:24 5,8 C 5,6 C 2,8 C 92 % 1026,1 hPa 0,0 l/m 2 min 0 min 156 W/m 19,3 km/h (3 Bft) 97,87 %
27.12.2022 11:26 5,9 C 5,6 C 2,8 C 92 % 1026,0 hPa 0,0 l/m 2 min 0 min 143 W/m 22,5 km/h (4 Bft) 95,74 %
27.12.2022 11:28 5,9 C 5,6 C 2,8 C 91 % 1026,0 hPa 0,0 l/m 0 min 0 min 105 W/m 12,9 km/h (3 Bft) 97,87 %
27.12.2022 11:30 5,9 C 5,6 C 2,8 C 91 % 1026,0 hPa 0,0 l/m 0 min 0 min 111 W/m 12,9 km/h (3 Bft) 97,87 %
27.12.2022 11:32 6,0 C 5,6 C 2,8 C 91 % 1026,0 hPa 0,0 l/m 0 min 0 min 118 W/m 25,7 km/h (4 Bft) 97,83 %
27.12.2022 11:34 6,1 C 5,6 C 2,8 C 91 % 1026,0 hPa 0,0 l/m 0 min 0 min 119 W/m 19,3 km/h (3 Bft) 97,87 %
27.12.2022 11:36 6,1 C 6,1 C 2,8 C 91 % 1026,0 hPa 0,0 l/m 0 min 0 min 75 W/m 12,9 km/h (3 Bft) 97,87 %
27.12.2022 11:38 6,1 C 5,6 C 2,8 C 91 % 1025,9 hPa 0,0 l/m 0 min 0 min 87 W/m 38,6 km/h (5 Bft) 95,74 %
27.12.2022 11:40 6,2 C 6,1 C 2,8 C 91 % 1026,0 hPa 0,0 l/m 0 min 0 min 113 W/m 12,9 km/h (3 Bft) 97,87 %
27.12.2022 11:42 6,2 C 6,1 C 2,8 C 90 % 1026,0 hPa 0,0 l/m 0 min 0 min 84 W/m 22,5 km/h (4 Bft) 97,87 %
27.12.2022 11:44 6,2 C 6,1 C 2,8 C 91 % 1026,0 hPa 0,0 l/m 0 min 0 min 77 W/m 19,3 km/h (3 Bft) 97,83 %
27.12.2022 11:46 6,2 C 6,1 C 2,8 C 90 % 1026,1 hPa 0,0 l/m 0 min 0 min 85 W/m 22,5 km/h (4 Bft) 97,87 %
27.12.2022 11:48 6,3 C 6,1 C 2,8 C 90 % 1026,1 hPa 0,0 l/m 0 min 0 min 103 W/m 19,3 km/h (3 Bft) 95,74 %
27.12.2022 11:50 6,3 C 6,1 C 2,8 C 90 % 1026,0 hPa 0,0 l/m 0 min 0 min 63 W/m 19,3 km/h (3 Bft) 95,74 %
27.12.2022 11:52 6,3 C 6,1 C 2,8 C 90 % 1026,0 hPa 0,0 l/m 0 min 0 min 62 W/m 19,3 km/h (3 Bft) 95,74 %
27.12.2022 11:54 6,4 C 6,1 C 3,3 C 90 % 1026,0 hPa 0,0 l/m 0 min 0 min 60 W/m 29,0 km/h (5 Bft) 97,87 %
27.12.2022 11:56 6,4 C 6,1 C 3,3 C 90 % 1026,0 hPa 0,0 l/m 0 min 0 min 60 W/m 22,5 km/h (4 Bft) 97,83 %
27.12.2022 11:58 6,5 C 6,1 C 3,3 C 90 % 1026,0 hPa 0,0 l/m 0 min 0 min 100 W/m 19,3 km/h (3 Bft) 97,87 %
27.12.2022 12:00 6,5 C 6,1 C 3,3 C 90 % 1026,0 hPa 0,0 l/m 0 min 0 min 108 W/m 16,1 km/h (3 Bft) 97,87 %
27.12.2022 12:02 6,6 C 6,1 C 3,3 C 90 % 1026,0 hPa 0,0 l/m 0 min 0 min 83 W/m 29,0 km/h (5 Bft) 95,74 %
27.12.2022 12:04 6,6 C 6,7 C 3,3 C 90 % 1026,0 hPa 0,0 l/m 2 min 0 min 157 W/m 22,5 km/h (4 Bft) 97,87 %
27.12.2022 12:08 6,6 C 6,1 C 3,3 C 89 % 1026,0 hPa 0,0 l/m 0 min 0 min 88 W/m 25,7 km/h (4 Bft) 97,89 %
27.12.2022 12:10 6,6 C 6,1 C 3,3 C 89 % 1026,0 hPa 0,0 l/m 0 min 0 min 52 W/m 19,3 km/h (3 Bft) 95,74 %
27.12.2022 12:12 6,6 C 6,1 C 3,3 C 89 % 1026,0 hPa 0,0 l/m 0 min 0 min 51 W/m 12,9 km/h (3 Bft) 100,00 %
27.12.2022 12:14 6,6 C 6,1 C 3,3 C 89 % 1026,1 hPa 0,0 l/m 0 min 0 min 55 W/m 12,9 km/h (3 Bft) 97,87 %
27.12.2022 12:16 6,6 C 6,1 C 3,3 C 89 % 1026,1 hPa 0,0 l/m 0 min 0 min 81 W/m 12,9 km/h (3 Bft) 100,00 %
27.12.2022 12:18 6,5 C 6,7 C 3,3 C 89 % 1026,1 hPa 0,0 l/m 0 min 0 min 86 W/m 25,7 km/h (4 Bft) 97,83 %
27.12.2022 12:20 6,6 C 6,7 C 3,3 C 89 % 1026,1 hPa 0,0 l/m 0 min 0 min 106 W/m 22,5 km/h (4 Bft) 97,87 %
27.12.2022 12:22 6,6 C 6,7 C 3,3 C 89 % 1026,1 hPa 0,0 l/m 0 min 0 min 86 W/m 12,9 km/h (3 Bft) 97,87 %
27.12.2022 12:24 6,7 C 6,7 C 3,3 C 89 % 1026,1 hPa 0,0 l/m 0 min 0 min 117 W/m 19,3 km/h (3 Bft) 97,87 %
27.12.2022 12:26 6,7 C 6,7 C 3,3 C 89 % 1026,0 hPa 0,0 l/m 0 min 0 min 97 W/m 25,7 km/h (4 Bft) 97,87 %
27.12.2022 12:28 6,8 C 6,7 C 3,3 C 89 % 1026,0 hPa 0,0 l/m 0 min 0 min 90 W/m 16,1 km/h (3 Bft) 95,74 %
27.12.2022 12:30 6,8 C 6,7 C 3,3 C 89 % 1026,0 hPa 0,0 l/m 0 min 0 min 107 W/m 25,7 km/h (4 Bft) 97,83 %
27.12.2022 12:32 6,9 C 6,7 C 3,3 C 89 % 1026,0 hPa 0,0 l/m 0 min 0 min 108 W/m 22,5 km/h (4 Bft) 97,87 %
27.12.2022 12:34 6,9 C 7,2 C 3,3 C 89 % 1026,0 hPa 0,0 l/m 0 min 0 min 105 W/m 22,5 km/h (4 Bft) 97,87 %
27.12.2022 12:36 6,9 C 7,2 C 3,3 C 88 % 1026,0 hPa 0,0 l/m 0 min 0 min 134 W/m 16,1 km/h (3 Bft) 93,62 %
27.12.2022 12:38 7,0 C 7,2 C 3,3 C 88 % 1026,0 hPa 0,0 l/m 0 min 0 min 111 W/m 19,3 km/h (3 Bft) 97,87 %
27.12.2022 12:40 7,1 C 7,2 C 3,3 C 88 % 1026,0 hPa 0,0 l/m 0 min 0 min 118 W/m 22,5 km/h (4 Bft) 97,87 %
27.12.2022 12:42 7,1 C 7,8 C 3,9 C 88 % 1026,0 hPa 0,0 l/m 0 min 0 min 132 W/m 22,5 km/h (4 Bft) 95,65 %
27.12.2022 12:44 7,2 C 7,8 C 3,9 C 88 % 1026,0 hPa 0,0 l/m 2 min 0 min 160 W/m 22,5 km/h (4 Bft) 97,87 %
27.12.2022 12:46 7,3 C 7,8 C 3,9 C 88 % 1025,9 hPa 0,0 l/m 0 min 0 min 128 W/m 16,1 km/h (3 Bft) 97,87 %
27.12.2022 12:48 7,3 C 7,8 C 3,9 C 87 % 1025,9 hPa 0,0 l/m 0 min 0 min 121 W/m 12,9 km/h (3 Bft) 93,62 %
27.12.2022 12:50 7,3 C 7,8 C 3,9 C 87 % 1026,0 hPa 0,0 l/m 0 min 0 min 99 W/m 22,5 km/h (4 Bft) 93,62 %
27.12.2022 12:52 7,3 C 7,2 C 3,9 C 87 % 1026,0 hPa 0,0 l/m 0 min 0 min 86 W/m 22,5 km/h (4 Bft) 95,74 %
27.12.2022 12:54 7,3 C 7,2 C 3,9 C 87 % 1026,0 hPa 0,0 l/m 0 min 0 min 88 W/m 25,7 km/h (4 Bft) 97,83 %
27.12.2022 12:56 7,3 C 7,2 C 3,9 C 87 % 1026,0 hPa 0,0 l/m 0 min 0 min 86 W/m 25,7 km/h (4 Bft) 95,74 %
27.12.2022 12:58 7,2 C 6,7 C 3,9 C 87 % 1026,0 hPa 0,0 l/m 0 min 0 min 83 W/m 22,5 km/h (4 Bft) 95,74 %
27.12.2022 13:00 7,1 C 6,7 C 3,9 C 87 % 1026,0 hPa 0,0 l/m 0 min 0 min 84 W/m 25,7 km/h (4 Bft) 91,49 %
27.12.2022 13:02 7,1 C 6,7 C 3,9 C 87 % 1026,0 hPa 0,0 l/m 0 min 0 min 81 W/m 22,5 km/h (4 Bft) 93,62 %
27.12.2022 13:04 7,1 C 6,7 C 3,9 C 87 % 1025,9 hPa 0,0 l/m 0 min 0 min 83 W/m 19,3 km/h (3 Bft) 95,74 %
27.12.2022 13:06 7,1 C 6,7 C 3,9 C 87 % 1026,0 hPa 0,0 l/m 0 min 0 min 83 W/m 19,3 km/h (3 Bft) 97,83 %
27.12.2022 13:08 7,1 C 6,7 C 3,9 C 87 % 1025,9 hPa 0,0 l/m 0 min 0 min 84 W/m 16,1 km/h (3 Bft) 93,62 %
27.12.2022 13:10 7,1 C 6,7 C 3,9 C 87 % 1026,0 hPa 0,0 l/m 0 min 0 min 78 W/m 16,1 km/h (3 Bft) 97,87 %
27.12.2022 13:12 7,0 C 6,7 C 3,9 C 87 % 1025,9 hPa 0,0 l/m 0 min 0 min 74 W/m 16,1 km/h (3 Bft) 95,74 %
27.12.2022 13:14 7,1 C 6,7 C 3,9 C 87 % 1026,0 hPa 0,0 l/m 0 min 0 min 79 W/m 16,1 km/h (3 Bft) 97,87 %
27.12.2022 13:16 7,1 C 6,7 C 3,9 C 87 % 1025,9 hPa 0,0 l/m 0 min 0 min 83 W/m 32,2 km/h (5 Bft) 97,87 %
27.12.2022 13:18 7,1 C 6,7 C 3,9 C 87 % 1025,9 hPa 0,0 l/m 0 min 0 min 87 W/m 22,5 km/h (4 Bft) 97,83 %
27.12.2022 13:20 7,1 C 6,7 C 3,9 C 87 % 1025,9 hPa 0,0 l/m 0 min 0 min 96 W/m 25,7 km/h (4 Bft) 97,87 %
27.12.2022 13:22 7,1 C 6,7 C 3,9 C 87 % 1025,9 hPa 0,0 l/m 0 min 0 min 98 W/m 25,7 km/h (4 Bft) 97,87 %
27.12.2022 13:24 7,1 C 6,7 C 3,9 C 87 % 1025,9 hPa 0,0 l/m 0 min 0 min 97 W/m 32,2 km/h (5 Bft) 97,87 %
27.12.2022 13:26 7,1 C 6,7 C 3,9 C 87 % 1025,8 hPa 0,0 l/m 0 min 0 min 95 W/m 22,5 km/h (4 Bft) 97,87 %
27.12.2022 13:28 7,1 C 7,2 C 3,9 C 87 % 1025,8 hPa 0,0 l/m 0 min 0 min 94 W/m 19,3 km/h (3 Bft) 97,83 %
27.12.2022 13:30 7,1 C 7,2 C 3,9 C 87 % 1025,8 hPa 0,0 l/m 0 min 0 min 94 W/m 12,9 km/h (3 Bft) 98,00 %
27.12.2022 13:32 7,2 C 7,2 C 3,9 C 88 % 1025,7 hPa 0,0 l/m 0 min 0 min 91 W/m 16,1 km/h (3 Bft) 97,87 %
27.12.2022 13:34 7,2 C 6,7 C 3,9 C 88 % 1025,7 hPa 0,0 l/m 0 min 0 min 89 W/m 16,1 km/h (3 Bft) 97,87 %
27.12.2022 13:36 7,2 C 6,7 C 3,9 C 87 % 1025,7 hPa 0,0 l/m 0 min 0 min 87 W/m 12,9 km/h (3 Bft) 93,62 %
27.12.2022 13:38 7,2 C 6,7 C 3,9 C 88 % 1025,7 hPa 0,0 l/m 0 min 0 min 84 W/m 12,9 km/h (3 Bft) 95,74 %
27.12.2022 13:40 7,1 C 6,7 C 3,9 C 88 % 1025,7 hPa 0,0 l/m 0 min 0 min 84 W/m 25,7 km/h (4 Bft) 97,83 %
27.12.2022 13:42 7,1 C 6,7 C 3,9 C 88 % 1025,7 hPa 0,0 l/m 0 min 0 min 81 W/m 19,3 km/h (3 Bft) 97,87 %
27.12.2022 13:44 7,1 C 6,7 C 3,9 C 88 % 1025,6 hPa 0,0 l/m 0 min 0 min 75 W/m 12,9 km/h (3 Bft) 95,74 %
27.12.2022 13:46 7,1 C 6,7 C 3,9 C 88 % 1025,6 hPa 0,0 l/m 0 min 0 min 70 W/m 19,3 km/h (3 Bft) 95,74 %
27.12.2022 13:48 7,1 C 6,7 C 3,9 C 88 % 1025,6 hPa 0,0 l/m 0 min 0 min 67 W/m 22,5 km/h (4 Bft) 97,87 %
27.12.2022 13:50 7,1 C 6,7 C 3,9 C 88 % 1025,6 hPa 0,0 l/m 0 min 0 min 65 W/m 19,3 km/h (3 Bft) 97,87 %
27.12.2022 13:52 7,2 C 6,7 C 3,9 C 88 % 1025,6 hPa 0,0 l/m 0 min 0 min 63 W/m 16,1 km/h (3 Bft) 97,83 %
27.12.2022 13:54 7,2 C 6,7 C 3,9 C 88 % 1025,6 hPa 0,0 l/m 0 min 0 min 63 W/m 16,1 km/h (3 Bft) 97,87 %
27.12.2022 13:56 7,2 C 6,7 C 3,9 C 88 % 1025,5 hPa 0,0 l/m 0 min 0 min 64 W/m 9,7 km/h (2 Bft) 97,87 %
27.12.2022 13:58 7,2 C 6,7 C 3,9 C 88 % 1025,5 hPa 0,0 l/m 0 min 0 min 65 W/m 6,4 km/h (2 Bft) 97,87 %
27.12.2022 14:00 7,2 C 6,7 C 3,9 C 88 % 1025,5 hPa 0,0 l/m 0 min 0 min 65 W/m 6,4 km/h (2 Bft) 97,87 %
27.12.2022 14:02 7,2 C 6,7 C 3,9 C 88 % 1025,4 hPa 0,0 l/m 0 min 0 min 65 W/m 16,1 km/h (3 Bft) 95,74 %
27.12.2022 14:04 7,2 C 6,7 C 3,9 C 88 % 1025,4 hPa 0,0 l/m 0 min 0 min 67 W/m 16,1 km/h (3 Bft) 97,83 %
27.12.2022 14:06 7,2 C 6,7 C 3,9 C 88 % 1025,3 hPa 0,0 l/m 0 min 0 min 69 W/m 19,3 km/h (3 Bft) 97,87 %
27.12.2022 14:08 7,2 C 6,7 C 3,9 C 88 % 1025,3 hPa 0,0 l/m 0 min 0 min 70 W/m 12,9 km/h (3 Bft) 97,87 %
27.12.2022 14:10 7,2 C 6,7 C 3,9 C 88 % 1025,3 hPa 0,0 l/m 0 min 0 min 70 W/m 16,1 km/h (3 Bft) 97,87 %
27.12.2022 14:12 7,2 C 6,7 C 3,9 C 88 % 1025,3 hPa 0,0 l/m 0 min 0 min 69 W/m 19,3 km/h (3 Bft) 97,87 %
27.12.2022 14:14 7,2 C 6,7 C 3,9 C 88 % 1025,2 hPa 0,0 l/m 0 min 0 min 65 W/m 12,9 km/h (3 Bft) 97,87 %
27.12.2022 14:16 7,2 C 6,7 C 3,9 C 88 % 1025,1 hPa 0,0 l/m 0 min 0 min 61 W/m 16,1 km/h (3 Bft) 97,83 %
27.12.2022 14:18 7,2 C 6,7 C 3,9 C 87 % 1025,1 hPa 0,0 l/m 0 min 0 min 57 W/m 9,7 km/h (2 Bft) 93,62 %
27.12.2022 14:20 7,2 C 6,7 C 3,9 C 88 % 1025,1 hPa 0,0 l/m 0 min 0 min 56 W/m 16,1 km/h (3 Bft) 95,74 %
27.12.2022 14:22 7,2 C 6,7 C 3,9 C 88 % 1025,0 hPa 0,0 l/m 0 min 0 min 57 W/m 19,3 km/h (3 Bft) 100,00 %
27.12.2022 14:24 7,2 C 6,7 C 3,9 C 87 % 1025,0 hPa 0,0 l/m 0 min 0 min 58 W/m 19,3 km/h (3 Bft) 97,87 %
27.12.2022 14:26 7,2 C 6,7 C 3,9 C 87 % 1025,1 hPa 0,0 l/m 0 min 0 min 59 W/m 22,5 km/h (4 Bft) 100,00 %
27.12.2022 14:28 7,2 C 6,7 C 3,9 C 87 % 1025,1 hPa 0,0 l/m 0 min 0 min 64 W/m 19,3 km/h (3 Bft) 100,00 %
27.12.2022 14:30 7,2 C 6,7 C 3,9 C 87 % 1025,0 hPa 0,0 l/m 0 min 0 min 69 W/m 19,3 km/h (3 Bft) 100,00 %
27.12.2022 14:32 7,2 C 6,7 C 3,9 C 87 % 1025,0 hPa 0,0 l/m 0 min 0 min 72 W/m 9,7 km/h (2 Bft) 100,00 %
27.12.2022 14:34 7,2 C 6,7 C 3,9 C 87 % 1025,0 hPa 0,0 l/m 0 min 0 min 73 W/m 19,3 km/h (3 Bft) 100,00 %
27.12.2022 14:36 7,2 C 6,7 C 3,9 C 87 % 1024,9 hPa 0,0 l/m 0 min 0 min 74 W/m 19,3 km/h (3 Bft) 97,87 %
27.12.2022 14:38 7,2 C 6,7 C 3,9 C 87 % 1024,9 hPa 0,0 l/m 0 min 0 min 78 W/m 19,3 km/h (3 Bft) 100,00 %
27.12.2022 14:40 7,3 C 6,7 C 3,9 C 87 % 1024,8 hPa 0,0 l/m 0 min 0 min 77 W/m 16,1 km/h (3 Bft) 100,00 %
27.12.2022 14:42 7,3 C 7,2 C 3,9 C 87 % 1024,8 hPa 0,0 l/m 0 min 0 min 76 W/m 32,2 km/h (5 Bft) 100,00 %
27.12.2022 14:44 7,3 C 6,7 C 3,9 C 87 % 1024,7 hPa 0,0 l/m 0 min 0 min 69 W/m 19,3 km/h (3 Bft) 97,87 %
27.12.2022 14:46 7,3 C 6,7 C 3,9 C 87 % 1024,8 hPa 0,0 l/m 0 min 0 min 62 W/m 16,1 km/h (3 Bft) 100,00 %
27.12.2022 14:48 7,3 C 6,7 C 3,9 C 87 % 1024,7 hPa 0,0 l/m 0 min 0 min 56 W/m 12,9 km/h (3 Bft) 100,00 %
27.12.2022 14:50 7,3 C 6,7 C 3,9 C 87 % 1024,7 hPa 0,0 l/m 0 min 0 min 53 W/m 22,5 km/h (4 Bft) 100,00 %
27.12.2022 14:52 7,3 C 6,7 C 3,9 C 87 % 1024,7 hPa 0,0 l/m 0 min 0 min 53 W/m 19,3 km/h (3 Bft) 97,87 %
27.12.2022 14:54 7,3 C 6,7 C 3,9 C 87 % 1024,7 hPa 0,0 l/m 0 min 0 min 49 W/m 19,3 km/h (3 Bft) 97,87 %
27.12.2022 14:56 7,3 C 6,7 C 3,9 C 87 % 1024,6 hPa 0,0 l/m 0 min 0 min 46 W/m 19,3 km/h (3 Bft) 100,00 %
27.12.2022 14:58 7,3 C 6,7 C 3,9 C 87 % 1024,7 hPa 0,0 l/m 0 min 0 min 45 W/m 29,0 km/h (5 Bft) 100,00 %
27.12.2022 15:00 7,3 C 6,7 C 3,9 C 87 % 1024,7 hPa 0,0 l/m 0 min 0 min 43 W/m 16,1 km/h (3 Bft) 95,74 %
27.12.2022 15:02 7,3 C 6,7 C 3,9 C 87 % 1024,6 hPa 0,0 l/m 0 min 0 min 40 W/m 22,5 km/h (4 Bft) 93,48 %
27.12.2022 15:04 7,3 C 6,7 C 3,9 C 87 % 1024,7 hPa 0,0 l/m 0 min 0 min 39 W/m 12,9 km/h (3 Bft) 97,87 %
27.12.2022 15:06 7,3 C 6,7 C 3,9 C 87 % 1024,6 hPa 0,0 l/m 0 min 0 min 37 W/m 16,1 km/h (3 Bft) 97,87 %
27.12.2022 15:08 7,3 C 6,7 C 3,9 C 87 % 1024,7 hPa 0,0 l/m 0 min 0 min 37 W/m 16,1 km/h (3 Bft) 97,87 %
27.12.2022 15:10 7,2 C 6,7 C 3,9 C 87 % 1024,7 hPa 0,0 l/m 0 min 0 min 37 W/m 12,9 km/h (3 Bft) 95,74 %
27.12.2022 15:12 7,2 C 6,7 C 3,9 C 87 % 1024,6 hPa 0,0 l/m 0 min 0 min 38 W/m 6,4 km/h (2 Bft) 95,74 %
27.12.2022 15:14 7,2 C 6,7 C 3,9 C 87 % 1024,6 hPa 0,0 l/m 0 min 0 min 39 W/m 16,1 km/h (3 Bft) 97,83 %
27.12.2022 15:16 7,2 C 6,7 C 3,9 C 87 % 1024,6 hPa 0,0 l/m 0 min 0 min 37 W/m 16,1 km/h (3 Bft) 97,87 %
27.12.2022 15:18 7,2 C 6,7 C 3,9 C 87 % 1024,6 hPa 0,0 l/m 0 min 0 min 36 W/m 16,1 km/h (3 Bft) 97,87 %
27.12.2022 15:20 7,2 C 6,7 C 3,9 C 87 % 1024,6 hPa 0,0 l/m 0 min 0 min 34 W/m 16,1 km/h (3 Bft) 97,87 %
27.12.2022 15:22 7,2 C 6,7 C 3,9 C 87 % 1024,5 hPa 0,0 l/m 0 min 0 min 33 W/m 22,5 km/h (4 Bft) 95,74 %
27.12.2022 15:24 7,2 C 6,7 C 3,9 C 87 % 1024,5 hPa 0,0 l/m 0 min 0 min 33 W/m 16,1 km/h (3 Bft) 97,87 %
27.12.2022 15:26 7,2 C 6,7 C 3,9 C 87 % 1024,5 hPa 0,0 l/m 0 min 0 min 33 W/m 12,9 km/h (3 Bft) 97,83 %
27.12.2022 15:28 7,2 C 6,7 C 3,9 C 87 % 1024,5 hPa 0,0 l/m 0 min 0 min 35 W/m 19,3 km/h (3 Bft) 93,62 %
27.12.2022 15:30 7,2 C 6,7 C 3,9 C 87 % 1024,5 hPa 0,0 l/m 0 min 0 min 35 W/m 22,5 km/h (4 Bft) 97,87 %
27.12.2022 15:32 7,2 C 6,7 C 3,9 C 87 % 1024,4 hPa 0,0 l/m 0 min 0 min 33 W/m 19,3 km/h (3 Bft) 97,87 %
27.12.2022 15:34 7,2 C 6,7 C 3,9 C 87 % 1024,4 hPa 0,0 l/m 0 min 0 min 29 W/m 12,9 km/h (3 Bft) 95,74 %
27.12.2022 15:36 7,2 C 6,7 C 3,3 C 87 % 1024,4 hPa 0,0 l/m 0 min 0 min 24 W/m 16,1 km/h (3 Bft) 95,74 %
27.12.2022 15:38 7,2 C 6,7 C 3,3 C 87 % 1024,4 hPa 0,0 l/m 0 min 0 min 21 W/m 16,1 km/h (3 Bft) 95,65 %
27.12.2022 15:40 7,2 C 6,7 C 3,3 C 87 % 1024,4 hPa 0,0 l/m 0 min 0 min 19 W/m 9,7 km/h (2 Bft) 95,74 %
27.12.2022 15:42 7,2 C 6,7 C 3,3 C 87 % 1024,4 hPa 0,0 l/m 0 min 0 min 19 W/m 16,1 km/h (3 Bft) 100,00 %
27.12.2022 15:44 7,2 C 6,7 C 3,3 C 87 % 1024,3 hPa 0,0 l/m 0 min 0 min 18 W/m 6,4 km/h (2 Bft) 95,74 %
27.12.2022 15:46 7,2 C 6,7 C 3,3 C 87 % 1024,3 hPa 0,0 l/m 0 min 0 min 17 W/m 9,7 km/h (2 Bft) 95,74 %
27.12.2022 15:48 7,2 C 6,7 C 3,3 C 87 % 1024,3 hPa 0,0 l/m 0 min 0 min 16 W/m 16,1 km/h (3 Bft) 97,87 %
27.12.2022 15:50 7,1 C 6,1 C 3,3 C 87 % 1024,3 hPa 0,0 l/m 0 min 0 min 16 W/m 16,1 km/h (3 Bft) 95,65 %
27.12.2022 15:52 7,1 C 6,7 C 3,3 C 87 % 1024,3 hPa 0,0 l/m 0 min 0 min 16 W/m 32,2 km/h (5 Bft) 93,62 %
27.12.2022 15:54 7,1 C 6,7 C 3,3 C 87 % 1024,2 hPa 0,0 l/m 0 min 0 min 14 W/m 12,9 km/h (3 Bft) 91,49 %
27.12.2022 15:56 7,1 C 6,7 C 3,3 C 87 % 1024,2 hPa 0,0 l/m 0 min 0 min 14 W/m 16,1 km/h (3 Bft) 95,74 %
27.12.2022 15:58 7,1 C 6,7 C 3,3 C 87 % 1024,2 hPa 0,0 l/m 0 min 0 min 12 W/m 12,9 km/h (3 Bft) 93,62 %
27.12.2022 16:00 7,1 C 6,1 C 3,3 C 87 % 1024,2 hPa 0,0 l/m 0 min 0 min 11 W/m 12,9 km/h (3 Bft) 95,74 %
27.12.2022 16:02 7,1 C 6,1 C 3,3 C 87 % 1024,3 hPa 0,0 l/m 0 min 0 min 11 W/m 16,1 km/h (3 Bft) 93,48 %
27.12.2022 16:04 7,1 C 6,1 C 3,3 C 87 % 1024,3 hPa 0,0 l/m 0 min 0 min 11 W/m 12,9 km/h (3 Bft) 95,74 %
27.12.2022 16:06 7,1 C 6,1 C 3,3 C 87 % 1024,2 hPa 0,0 l/m 0 min 0 min 11 W/m 9,7 km/h (2 Bft) 95,74 %
27.12.2022 16:08 7,1 C 6,1 C 3,3 C 87 % 1024,2 hPa 0,0 l/m 0 min 0 min 9 W/m 12,9 km/h (3 Bft) 95,74 %
27.12.2022 16:10 7,1 C 6,1 C 3,3 C 87 % 1024,3 hPa 0,0 l/m 0 min 0 min 9 W/m 12,9 km/h (3 Bft) 93,62 %
27.12.2022 16:12 7,1 C 6,1 C 3,3 C 87 % 1024,3 hPa 0,0 l/m 0 min 0 min 9 W/m 12,9 km/h (3 Bft) 95,74 %
27.12.2022 16:14 7,1 C 6,1 C 3,3 C 87 % 1024,2 hPa 0,0 l/m 0 min 0 min 9 W/m 19,3 km/h (3 Bft) 95,65 %
27.12.2022 16:16 7,1 C 6,1 C 3,3 C 87 % 1024,2 hPa 0,0 l/m 0 min 0 min 11 W/m 16,1 km/h (3 Bft) 95,74 %
27.12.2022 16:18 7,1 C 6,1 C 3,3 C 87 % 1024,2 hPa 0,0 l/m 0 min 0 min 11 W/m 19,3 km/h (3 Bft) 95,74 %
27.12.2022 16:20 7,1 C 6,1 C 3,3 C 87 % 1024,2 hPa 0,0 l/m 0 min 0 min 13 W/m 19,3 km/h (3 Bft) 95,74 %
27.12.2022 16:22 7,1 C 6,7 C 3,3 C 87 % 1024,2 hPa 0,0 l/m 0 min 0 min 14 W/m 16,1 km/h (3 Bft) 95,74 %
27.12.2022 16:24 7,1 C 6,7 C 3,3 C 87 % 1024,2 hPa 0,0 l/m 0 min 0 min 12 W/m 19,3 km/h (3 Bft) 95,74 %
27.12.2022 16:26 7,1 C 6,7 C 3,3 C 87 % 1024,2 hPa 0,0 l/m 0 min 0 min 11 W/m 19,3 km/h (3 Bft) 95,65 %
27.12.2022 16:28 7,1 C 6,7 C 3,3 C 87 % 1024,2 hPa 0,0 l/m 0 min 0 min 9 W/m 22,5 km/h (4 Bft) 95,74 %
27.12.2022 16:30 7,1 C 6,7 C 3,3 C 87 % 1024,1 hPa 0,0 l/m 0 min 0 min 7 W/m 16,1 km/h (3 Bft) 97,87 %
27.12.2022 16:32 7,1 C 6,1 C 3,3 C 86 % 1024,1 hPa 0,0 l/m 0 min 0 min 7 W/m 19,3 km/h (3 Bft) 100,00 %
27.12.2022 16:34 7,1 C 6,1 C 3,3 C 86 % 1024,1 hPa 0,0 l/m 0 min 0 min 5 W/m 22,5 km/h (4 Bft) 100,00 %
27.12.2022 16:36 7,1 C 6,7 C 3,3 C 86 % 1024,1 hPa 0,0 l/m 0 min 0 min 5 W/m 22,5 km/h (4 Bft) 97,87 %
27.12.2022 16:38 7,1 C 6,7 C 3,3 C 86 % 1024,1 hPa 0,0 l/m 0 min 0 min 5 W/m 19,3 km/h (3 Bft) 97,83 %
27.12.2022 16:40 7,1 C 6,1 C 3,3 C 86 % 1024,1 hPa 0,0 l/m 0 min 0 min 5 W/m 22,5 km/h (4 Bft) 100,00 %
27.12.2022 16:42 7,1 C 6,1 C 3,3 C 86 % 1024,0 hPa 0,0 l/m 0 min 0 min 5 W/m 16,1 km/h (3 Bft) 100,00 %
27.12.2022 16:44 7,1 C 6,1 C 3,3 C 86 % 1024,0 hPa 0,0 l/m 0 min 0 min 0 W/m 16,1 km/h (3 Bft) 97,87 %
27.12.2022 16:46 7,1 C 6,1 C 3,3 C 86 % 1024,1 hPa 0,0 l/m 0 min 0 min 0 W/m 22,5 km/h (4 Bft) 97,87 %
27.12.2022 16:48 7,1 C 6,1 C 3,3 C 86 % 1024,0 hPa 0,0 l/m 0 min 0 min 0 W/m 16,1 km/h (3 Bft) 100,00 %
27.12.2022 16:50 7,1 C 6,1 C 3,3 C 86 % 1024,0 hPa 0,0 l/m 0 min 0 min 0 W/m 19,3 km/h (3 Bft) 100,00 %
27.12.2022 16:52 7,1 C 6,1 C 3,3 C 86 % 1024,1 hPa 0,0 l/m 0 min 0 min 0 W/m 32,2 km/h (5 Bft) 100,00 %
27.12.2022 16:54 7,1 C 6,1 C 3,3 C 86 % 1024,1 hPa 0,0 l/m 0 min 0 min 0 W/m 32,2 km/h (5 Bft) 100,00 %
27.12.2022 16:56 7,1 C 6,1 C 3,3 C 86 % 1024,0 hPa 0,0 l/m 0 min 0 min 0 W/m 19,3 km/h (3 Bft) 100,00 %
27.12.2022 16:58 7,1 C 6,1 C 3,3 C 86 % 1024,0 hPa 0,0 l/m 0 min 0 min 0 W/m 12,9 km/h (3 Bft) 97,87 %
27.12.2022 17:00 7,1 C 6,1 C 3,3 C 86 % 1024,0 hPa 0,0 l/m 0 min 0 min 0 W/m 25,7 km/h (4 Bft) 100,00 %
27.12.2022 17:02 7,1 C 6,1 C 3,3 C 86 % 1024,0 hPa 0,0 l/m 0 min 0 min 0 W/m 25,7 km/h (4 Bft) 100,00 %
27.12.2022 17:04 7,1 C 6,1 C 3,3 C 86 % 1024,0 hPa 0,0 l/m 0 min 0 min 0 W/m 16,1 km/h (3 Bft) 100,00 %
27.12.2022 17:06 7,1 C 6,1 C 3,3 C 86 % 1024,0 hPa 0,0 l/m 0 min 0 min 0 W/m 16,1 km/h (3 Bft) 100,00 %
27.12.2022 17:08 7,0 C 6,1 C 3,3 C 86 % 1023,9 hPa 0,0 l/m 0 min 0 min 0 W/m 16,1 km/h (3 Bft) 100,00 %
27.12.2022 17:10 7,0 C 6,1 C 3,3 C 86 % 1023,9 hPa 0,0 l/m 0 min 0 min 0 W/m 9,7 km/h (2 Bft) 100,00 %
27.12.2022 17:12 6,9 C 6,1 C 3,3 C 86 % 1023,9 hPa 0,0 l/m 0 min 0 min 0 W/m 22,5 km/h (4 Bft) 95,74 %
27.12.2022 17:14 6,9 C 6,1 C 3,3 C 86 % 1023,9 hPa 0,0 l/m 0 min 0 min 0 W/m 22,5 km/h (4 Bft) 100,00 %
27.12.2022 17:16 6,9 C 6,1 C 2,8 C 86 % 1023,9 hPa 0,0 l/m 0 min 0 min 0 W/m 12,9 km/h (3 Bft) 100,00 %
27.12.2022 17:18 6,9 C 6,1 C 2,8 C 86 % 1023,8 hPa 0,0 l/m 0 min 0 min 0 W/m 22,5 km/h (4 Bft) 97,87 %
27.12.2022 17:20 6,9 C 6,1 C 2,8 C 86 % 1023,8 hPa 0,0 l/m 0 min 0 min 0 W/m 19,3 km/h (3 Bft) 100,00 %
27.12.2022 17:22 6,8 C 6,1 C 2,8 C 86 % 1023,8 hPa 0,0 l/m 0 min 0 min 0 W/m 22,5 km/h (4 Bft) 100,00 %
27.12.2022 17:24 6,8 C 6,1 C 2,8 C 86 % 1023,8 hPa 0,0 l/m 0 min 0 min 0 W/m 22,5 km/h (4 Bft) 97,87 %
27.12.2022 17:26 6,8 C 6,1 C 2,8 C 86 % 1023,9 hPa 0,0 l/m 0 min 0 min 0 W/m 19,3 km/h (3 Bft) 100,00 %
27.12.2022 17:28 6,8 C 6,1 C 2,8 C 86 % 1023,8 hPa 0,0 l/m 0 min 0 min 0 W/m 16,1 km/h (3 Bft) 100,00 %
27.12.2022 17:30 6,8 C 6,1 C 2,8 C 86 % 1023,8 hPa 0,0 l/m 0 min 0 min 0 W/m 12,9 km/h (3 Bft) 97,87 %
27.12.2022 17:32 6,8 C 6,1 C 2,8 C 86 % 1023,8 hPa 0,0 l/m 0 min 0 min 0 W/m 12,9 km/h (3 Bft) 97,87 %
27.12.2022 17:34 6,8 C 6,1 C 2,8 C 86 % 1023,9 hPa 0,0 l/m 0 min 0 min 0 W/m 16,1 km/h (3 Bft) 97,87 %
27.12.2022 17:36 6,8 C 6,1 C 2,8 C 86 % 1023,9 hPa 0,0 l/m 0 min 0 min 0 W/m 19,3 km/h (3 Bft) 95,74 %
27.12.2022 17:38 6,8 C 6,1 C 2,8 C 86 % 1023,9 hPa 0,0 l/m 0 min 0 min 0 W/m 16,1 km/h (3 Bft) 100,00 %
27.12.2022 17:40 6,7 C 6,1 C 2,8 C 86 % 1023,9 hPa 0,0 l/m 0 min 0 min 0 W/m 9,7 km/h (2 Bft) 97,87 %
27.12.2022 17:42 6,7 C 5,6 C 2,8 C 86 % 1023,9 hPa 0,0 l/m 0 min 0 min 0 W/m 12,9 km/h (3 Bft) 97,87 %
27.12.2022 17:44 6,7 C 5,6 C 2,8 C 86 % 1023,9 hPa 0,0 l/m 0 min 0 min 0 W/m 9,7 km/h (2 Bft) 95,74 %
27.12.2022 17:46 6,7 C 5,6 C 2,8 C 86 % 1024,0 hPa 0,0 l/m 0 min 0 min 0 W/m 12,9 km/h (3 Bft) 95,74 %
27.12.2022 17:48 6,6 C 5,6 C 2,8 C 86 % 1023,9 hPa 0,0 l/m 0 min 0 min 0 W/m 16,1 km/h (3 Bft) 93,62 %
27.12.2022 17:50 6,6 C 5,6 C 2,8 C 86 % 1024,0 hPa 0,0 l/m 0 min 0 min 0 W/m 16,1 km/h (3 Bft) 97,83 %
27.12.2022 17:52 6,6 C 5,6 C 2,8 C 86 % 1024,0 hPa 0,0 l/m 0 min 0 min 0 W/m 12,9 km/h (3 Bft) 97,87 %
27.12.2022 17:54 6,6 C 5,6 C 2,8 C 86 % 1024,0 hPa 0,0 l/m 0 min 0 min 0 W/m 6,4 km/h (2 Bft) 95,74 %
27.12.2022 17:56 6,5 C 5,6 C 2,8 C 86 % 1024,0 hPa 0,0 l/m 0 min 0 min 0 W/m 12,9 km/h (3 Bft) 95,74 %
27.12.2022 17:58 6,5 C 5,6 C 2,8 C 86 % 1024,0 hPa 0,0 l/m 0 min 0 min 0 W/m 12,9 km/h (3 Bft) 95,74 %
27.12.2022 18:00 6,5 C 5,6 C 2,8 C 86 % 1024,1 hPa 0,0 l/m 0 min 0 min 0 W/m 12,9 km/h (3 Bft) 93,62 %
27.12.2022 18:02 6,5 C 5,6 C 2,2 C 86 % 1024,0 hPa 0,0 l/m 0 min 0 min 0 W/m 9,7 km/h (2 Bft) 93,48 %
27.12.2022 18:04 6,4 C 5,6 C 2,2 C 86 % 1024,0 hPa 0,0 l/m 0 min 0 min 0 W/m 9,7 km/h (2 Bft) 93,62 %
27.12.2022 18:08 6,4 C 5,6 C 2,2 C 86 % 1023,9 hPa 0,0 l/m 0 min 0 min 0 W/m 16,1 km/h (3 Bft) 94,05 %
27.12.2022 18:10 6,4 C 5,6 C 2,2 C 86 % 1024,0 hPa 0,0 l/m 0 min 0 min 0 W/m 12,9 km/h (3 Bft) 95,74 %
27.12.2022 18:12 6,3 C 5,0 C 2,2 C 86 % 1023,9 hPa 0,0 l/m 0 min 0 min 0 W/m 6,4 km/h (2 Bft) 93,62 %
27.12.2022 18:14 6,3 C 5,0 C 2,2 C 86 % 1023,9 hPa 0,0 l/m 0 min 0 min 0 W/m 9,7 km/h (2 Bft) 93,62 %
27.12.2022 18:16 6,3 C 5,0 C 2,2 C 86 % 1023,9 hPa 0,0 l/m 0 min 0 min 0 W/m 6,4 km/h (2 Bft) 93,48 %
27.12.2022 18:18 6,3 C 5,0 C 2,2 C 86 % 1023,9 hPa 0,0 l/m 0 min 0 min 0 W/m 6,4 km/h (2 Bft) 44,44 %
27.12.2022 18:20 6,2 C 5,0 C 2,2 C 86 % 1023,9 hPa 0,0 l/m 0 min 0 min 0 W/m 16,1 km/h (3 Bft) 93,62 %
27.12.2022 18:22 6,2 C 5,0 C 2,2 C 86 % 1023,8 hPa 0,0 l/m 0 min 0 min 0 W/m 12,9 km/h (3 Bft) 93,62 %
27.12.2022 18:24 6,2 C 5,0 C 2,2 C 87 % 1023,8 hPa 0,0 l/m 0 min 0 min 0 W/m 12,9 km/h (3 Bft) 93,62 %
27.12.2022 18:26 6,2 C 5,0 C 2,2 C 87 % 1023,8 hPa 0,0 l/m 0 min 0 min 0 W/m 16,1 km/h (3 Bft) 93,62 %
27.12.2022 18:28 6,1 C 5,0 C 2,2 C 87 % 1023,7 hPa 0,0 l/m 0 min 0 min 0 W/m 9,7 km/h (2 Bft) 95,65 %
27.12.2022 18:30 6,1 C 5,0 C 2,2 C 87 % 1023,7 hPa 0,0 l/m 0 min 0 min 0 W/m 12,9 km/h (3 Bft) 95,74 %
27.12.2022 18:32 6,1 C 5,0 C 2,2 C 87 % 1023,7 hPa 0,0 l/m 0 min 0 min 0 W/m 6,4 km/h (2 Bft) 95,74 %
27.12.2022 18:34 6,1 C 5,0 C 2,2 C 87 % 1023,7 hPa 0,0 l/m 0 min 0 min 0 W/m 9,7 km/h (2 Bft) 95,74 %
27.12.2022 18:36 6,1 C 5,0 C 2,2 C 87 % 1023,7 hPa 0,0 l/m 0 min 0 min 0 W/m 12,9 km/h (3 Bft) 95,74 %
27.12.2022 18:38 6,0 C 5,0 C 2,2 C 87 % 1023,7 hPa 0,0 l/m 0 min 0 min 0 W/m 12,9 km/h (3 Bft) 95,74 %
27.12.2022 18:40 6,0 C 5,0 C 2,2 C 87 % 1023,7 hPa 0,0 l/m 0 min 0 min 0 W/m 12,9 km/h (3 Bft) 95,65 %
27.12.2022 18:42 6,0 C 5,0 C 2,2 C 87 % 1023,6 hPa 0,0 l/m 0 min 0 min 0 W/m 9,7 km/h (2 Bft) 93,62 %
27.12.2022 18:44 5,9 C 5,0 C 2,2 C 87 % 1023,6 hPa 0,0 l/m 0 min 0 min 0 W/m 9,7 km/h (2 Bft) 93,62 %
27.12.2022 18:46 5,9 C 5,0 C 2,2 C 87 % 1023,6 hPa 0,0 l/m 0 min 0 min 0 W/m 6,4 km/h (2 Bft) 95,74 %
27.12.2022 18:48 5,9 C 5,0 C 2,2 C 87 % 1023,6 hPa 0,0 l/m 0 min 0 min 0 W/m 16,1 km/h (3 Bft) 97,87 %
27.12.2022 18:50 5,9 C 5,0 C 2,2 C 87 % 1023,5 hPa 0,0 l/m 0 min 0 min 0 W/m 12,9 km/h (3 Bft) 97,87 %
27.12.2022 18:52 5,9 C 5,0 C 2,2 C 87 % 1023,5 hPa 0,0 l/m 0 min 0 min 0 W/m 6,4 km/h (2 Bft) 97,83 %
27.12.2022 18:54 5,9 C 5,0 C 2,2 C 87 % 1023,6 hPa 0,0 l/m 0 min 0 min 0 W/m 12,9 km/h (3 Bft) 93,62 %
27.12.2022 18:56 5,8 C 5,0 C 2,2 C 87 % 1023,5 hPa 0,0 l/m 0 min 0 min 0 W/m 9,7 km/h (2 Bft) 97,87 %
27.12.2022 18:58 5,8 C 5,0 C 2,2 C 87 % 1023,6 hPa 0,0 l/m 0 min 0 min 0 W/m 12,9 km/h (3 Bft) 97,87 %
27.12.2022 19:00 5,8 C 5,0 C 1,7 C 87 % 1023,6 hPa 0,0 l/m 0 min 0 min 0 W/m 9,7 km/h (2 Bft) 97,87 %
27.12.2022 19:02 5,8 C 5,0 C 1,7 C 87 % 1023,6 hPa 0,0 l/m 0 min 0 min 0 W/m 9,7 km/h (2 Bft) 95,74 %
27.12.2022 19:04 5,8 C 4,4 C 1,7 C 87 % 1023,6 hPa 0,0 l/m 0 min 0 min 0 W/m 16,1 km/h (3 Bft) 100,00 %
27.12.2022 19:06 5,7 C 4,4 C 1,7 C 87 % 1023,5 hPa 0,0 l/m 0 min 0 min 0 W/m 12,9 km/h (3 Bft) 100,00 %
27.12.2022 19:08 5,7 C 4,4 C 1,7 C 87 % 1023,6 hPa 0,0 l/m 0 min 0 min 0 W/m 9,7 km/h (2 Bft) 100,00 %
27.12.2022 19:10 5,7 C 4,4 C 1,7 C 87 % 1023,5 hPa 0,0 l/m 0 min 0 min 0 W/m 12,9 km/h (3 Bft) 100,00 %
27.12.2022 19:12 5,6 C 4,4 C 1,7 C 88 % 1023,5 hPa 0,0 l/m 0 min 0 min 0 W/m 16,1 km/h (3 Bft) 100,00 %
27.12.2022 19:14 5,6 C 4,4 C 1,7 C 88 % 1023,5 hPa 0,0 l/m 0 min 0 min 0 W/m 9,7 km/h (2 Bft) 97,87 %
27.12.2022 19:16 5,6 C 4,4 C 1,7 C 88 % 1023,5 hPa 0,0 l/m 0 min 0 min 0 W/m 6,4 km/h (2 Bft) 97,83 %
27.12.2022 19:18 5,6 C 4,4 C 1,7 C 88 % 1023,4 hPa 0,0 l/m 0 min 0 min 0 W/m 6,4 km/h (2 Bft) 100,00 %
27.12.2022 19:20 5,5 C 4,4 C 1,7 C 88 % 1023,4 hPa 0,0 l/m 0 min 0 min 0 W/m 12,9 km/h (3 Bft) 100,00 %
27.12.2022 19:22 5,5 C 4,4 C 1,7 C 88 % 1023,4 hPa 0,0 l/m 0 min 0 min 0 W/m 6,4 km/h (2 Bft) 97,87 %
27.12.2022 19:24 5,4 C 4,4 C 1,7 C 88 % 1023,3 hPa 0,0 l/m 0 min 0 min 0 W/m 3,2 km/h (1 Bft) 35,48 %
27.12.2022 19:26 5,4 C 4,4 C 1,7 C 88 % 1023,3 hPa 0,0 l/m 0 min 0 min 0 W/m 16,1 km/h (3 Bft) 100,00 %
27.12.2022 19:28 5,4 C 4,4 C 1,7 C 88 % 1023,3 hPa 0,0 l/m 0 min 0 min 0 W/m 16,1 km/h (3 Bft) 100,00 %
27.12.2022 19:30 5,4 C 4,4 C 1,7 C 88 % 1023,2 hPa 0,0 l/m 0 min 0 min 0 W/m 12,9 km/h (3 Bft) 100,00 %
27.12.2022 19:32 5,4 C 4,4 C 1,7 C 88 % 1023,2 hPa 0,0 l/m 0 min 0 min 0 W/m 6,4 km/h (2 Bft) 100,00 %
27.12.2022 19:34 5,3 C 4,4 C 1,7 C 88 % 1023,2 hPa 0,0 l/m 0 min 0 min 0 W/m 16,1 km/h (3 Bft) 97,87 %
27.12.2022 19:36 5,3 C 4,4 C 1,7 C 89 % 1023,2 hPa 0,0 l/m 0 min 0 min 0 W/m 16,1 km/h (3 Bft) 97,87 %
27.12.2022 19:38 5,3 C 4,4 C 1,7 C 88 % 1023,2 hPa 0,0 l/m 0 min 0 min 0 W/m 16,1 km/h (3 Bft) 97,92 %
27.12.2022 19:40 5,3 C 4,4 C 1,7 C 89 % 1023,2 hPa 0,0 l/m 0 min 0 min 0 W/m 16,1 km/h (3 Bft) 97,87 %
27.12.2022 19:42 5,2 C 4,4 C 1,7 C 89 % 1023,2 hPa 0,0 l/m 0 min 0 min 0 W/m 19,3 km/h (3 Bft) 95,74 %
27.12.2022 19:44 5,2 C 4,4 C 1,7 C 89 % 1023,2 hPa 0,0 l/m 0 min 0 min 0 W/m 19,3 km/h (3 Bft) 97,87 %
27.12.2022 19:46 5,2 C 4,4 C 1,7 C 89 % 1023,2 hPa 0,0 l/m 0 min 0 min 0 W/m 22,5 km/h (4 Bft) 97,87 %
27.12.2022 19:48 5,2 C 4,4 C 1,7 C 89 % 1023,2 hPa 0,0 l/m 0 min 0 min 0 W/m 22,5 km/h (4 Bft) 97,83 %
27.12.2022 19:50 5,2 C 4,4 C 1,7 C 89 % 1023,1 hPa 0,0 l/m 0 min 0 min 0 W/m 16,1 km/h (3 Bft) 97,87 %
27.12.2022 19:52 5,2 C 4,4 C 1,7 C 89 % 1023,1 hPa 0,0 l/m 0 min 0 min 0 W/m 22,5 km/h (4 Bft) 97,87 %
27.12.2022 19:54 5,2 C 4,4 C 1,7 C 89 % 1023,2 hPa 0,0 l/m 0 min 0 min 0 W/m 19,3 km/h (3 Bft) 97,87 %
27.12.2022 19:56 5,2 C 4,4 C 1,7 C 89 % 1023,2 hPa 0,0 l/m 0 min 0 min 0 W/m 19,3 km/h (3 Bft) 97,87 %
27.12.2022 19:58 5,2 C 4,4 C 1,7 C 89 % 1023,2 hPa 0,0 l/m 0 min 0 min 0 W/m 12,9 km/h (3 Bft) 93,62 %
27.12.2022 20:00 5,3 C 4,4 C 1,7 C 89 % 1023,2 hPa 0,0 l/m 0 min 0 min 0 W/m 16,1 km/h (3 Bft) 97,83 %
27.12.2022 20:02 5,2 C 4,4 C 1,7 C 88 % 1023,1 hPa 0,0 l/m 0 min 0 min 0 W/m 16,1 km/h (3 Bft) 97,87 %
27.12.2022 20:04 5,2 C 4,4 C 1,7 C 88 % 1023,1 hPa 0,0 l/m 0 min 0 min 0 W/m 16,1 km/h (3 Bft) 97,87 %
27.12.2022 20:06 5,2 C 4,4 C 1,7 C 88 % 1023,0 hPa 0,0 l/m 0 min 0 min 0 W/m 16,1 km/h (3 Bft) 100,00 %
27.12.2022 20:08 5,3 C 4,4 C 1,7 C 88 % 1023,0 hPa 0,0 l/m 0 min 0 min 0 W/m 16,1 km/h (3 Bft) 100,00 %
27.12.2022 20:10 5,3 C 4,4 C 1,7 C 88 % 1023,0 hPa 0,0 l/m 0 min 0 min 0 W/m 19,3 km/h (3 Bft) 100,00 %
27.12.2022 20:12 5,3 C 4,4 C 1,7 C 88 % 1023,0 hPa 0,0 l/m 0 min 0 min 0 W/m 12,9 km/h (3 Bft) 100,00 %
27.12.2022 20:14 5,2 C 4,4 C 1,7 C 88 % 1022,9 hPa 0,0 l/m 0 min 0 min 0 W/m 19,3 km/h (3 Bft) 100,00 %
27.12.2022 20:16 5,2 C 4,4 C 1,7 C 88 % 1023,0 hPa 0,0 l/m 0 min 0 min 0 W/m 6,4 km/h (2 Bft) 97,87 %
27.12.2022 20:18 5,2 C 4,4 C 1,7 C 88 % 1023,0 hPa 0,0 l/m 0 min 0 min 0 W/m 16,1 km/h (3 Bft) 100,00 %
27.12.2022 20:20 5,2 C 4,4 C 1,7 C 88 % 1022,9 hPa 0,0 l/m 0 min 0 min 0 W/m 12,9 km/h (3 Bft) 100,00 %
27.12.2022 20:22 5,2 C 4,4 C 1,7 C 88 % 1022,8 hPa 0,0 l/m 0 min 0 min 0 W/m 9,7 km/h (2 Bft) 100,00 %
27.12.2022 20:24 5,2 C 4,4 C 1,7 C 88 % 1022,8 hPa 0,0 l/m 0 min 0 min 0 W/m 19,3 km/h (3 Bft) 100,00 %
27.12.2022 20:26 5,2 C 4,4 C 1,7 C 88 % 1022,7 hPa 0,0 l/m 0 min 0 min 0 W/m 16,1 km/h (3 Bft) 100,00 %
27.12.2022 20:28 5,2 C 4,4 C 1,7 C 88 % 1022,8 hPa 0,0 l/m 0 min 0 min 0 W/m 16,1 km/h (3 Bft) 95,74 %
27.12.2022 20:30 5,2 C 4,4 C 1,7 C 88 % 1022,7 hPa 0,0 l/m 0 min 0 min 0 W/m 12,9 km/h (3 Bft) 100,00 %
27.12.2022 20:32 5,2 C 4,4 C 1,7 C 88 % 1022,7 hPa 0,0 l/m 0 min 0 min 0 W/m 16,1 km/h (3 Bft) 100,00 %
27.12.2022 20:34 5,2 C 4,4 C 1,7 C 88 % 1022,7 hPa 0,0 l/m 0 min 0 min 0 W/m 16,1 km/h (3 Bft) 97,83 %
27.12.2022 20:36 5,2 C 4,4 C 1,7 C 88 % 1022,6 hPa 0,0 l/m 0 min 0 min 0 W/m 25,7 km/h (4 Bft) 100,00 %
27.12.2022 20:38 5,2 C 4,4 C 1,7 C 88 % 1022,6 hPa 0,0 l/m 0 min 0 min 0 W/m 19,3 km/h (3 Bft) 97,87 %
27.12.2022 20:40 5,2 C 4,4 C 1,7 C 87 % 1022,5 hPa 0,0 l/m 0 min 0 min 0 W/m 19,3 km/h (3 Bft) 100,00 %
27.12.2022 20:42 5,2 C 4,4 C 1,7 C 87 % 1022,5 hPa 0,0 l/m 0 min 0 min 0 W/m 12,9 km/h (3 Bft) 97,87 %
27.12.2022 20:44 5,2 C 4,4 C 1,7 C 87 % 1022,6 hPa 0,0 l/m 0 min 0 min 0 W/m 12,9 km/h (3 Bft) 97,87 %
27.12.2022 20:46 5,2 C 4,4 C 1,7 C 87 % 1022,5 hPa 0,0 l/m 0 min 0 min 0 W/m 12,9 km/h (3 Bft) 97,87 %
27.12.2022 20:48 5,2 C 4,4 C 1,7 C 87 % 1022,5 hPa 0,0 l/m 0 min 0 min 0 W/m 6,4 km/h (2 Bft) 97,83 %
27.12.2022 20:50 5,2 C 4,4 C 1,7 C 87 % 1022,5 hPa 0,0 l/m 0 min 0 min 0 W/m 12,9 km/h (3 Bft) 97,87 %
27.12.2022 20:52 5,2 C 4,4 C 1,7 C 87 % 1022,5 hPa 0,0 l/m 0 min 0 min 0 W/m 12,9 km/h (3 Bft) 97,87 %
27.12.2022 20:54 5,2 C 4,4 C 1,7 C 87 % 1022,5 hPa 0,0 l/m 0 min 0 min 0 W/m 12,9 km/h (3 Bft) 97,87 %
27.12.2022 20:56 5,2 C 4,4 C 1,7 C 87 % 1022,5 hPa 0,0 l/m 0 min 0 min 0 W/m 19,3 km/h (3 Bft) 97,87 %
27.12.2022 20:58 5,2 C 4,4 C 1,7 C 87 % 1022,4 hPa 0,0 l/m 0 min 0 min 0 W/m 12,9 km/h (3 Bft) 95,65 %
27.12.2022 21:00 5,2 C 4,4 C 1,7 C 86 % 1022,4 hPa 0,0 l/m 0 min 0 min 0 W/m 16,1 km/h (3 Bft) 97,87 %
27.12.2022 21:02 5,1 C 4,4 C 1,7 C 86 % 1022,5 hPa 0,0 l/m 0 min 0 min 0 W/m 16,1 km/h (3 Bft) 93,62 %
27.12.2022 21:04 5,1 C 4,4 C 1,7 C 87 % 1022,4 hPa 0,0 l/m 0 min 0 min 0 W/m 12,9 km/h (3 Bft) 97,87 %
27.12.2022 21:06 5,1 C 4,4 C 1,7 C 86 % 1022,3 hPa 0,0 l/m 0 min 0 min 0 W/m 12,9 km/h (3 Bft) 96,61 %
27.12.2022 21:08 5,1 C 4,4 C 1,7 C 86 % 1022,3 hPa 0,0 l/m 0 min 0 min 0 W/m 16,1 km/h (3 Bft) 94,29 %
27.12.2022 21:10 5,1 C 4,4 C 1,7 C 86 % 1022,3 hPa 0,0 l/m 0 min 0 min 0 W/m 16,1 km/h (3 Bft) 95,65 %
27.12.2022 21:12 5,1 C 4,4 C 1,7 C 86 % 1022,3 hPa 0,0 l/m 0 min 0 min 0 W/m 16,1 km/h (3 Bft) 95,74 %
27.12.2022 21:14 5,1 C 4,4 C 1,7 C 86 % 1022,3 hPa 0,0 l/m 0 min 0 min 0 W/m 16,1 km/h (3 Bft) 91,49 %
27.12.2022 21:16 5,1 C 4,4 C 1,7 C 86 % 1022,2 hPa 0,0 l/m 0 min 0 min 0 W/m 12,9 km/h (3 Bft) 95,74 %
27.12.2022 21:18 5,1 C 4,4 C 1,7 C 86 % 1022,1 hPa 0,0 l/m 0 min 0 min 0 W/m 16,1 km/h (3 Bft) 93,62 %
27.12.2022 21:20 5,1 C 4,4 C 1,7 C 86 % 1022,2 hPa 0,0 l/m 0 min 0 min 0 W/m 12,9 km/h (3 Bft) 95,74 %
27.12.2022 21:22 5,1 C 4,4 C 1,7 C 86 % 1022,1 hPa 0,0 l/m 0 min 0 min 0 W/m 12,9 km/h (3 Bft) 95,65 %
27.12.2022 21:24 5,1 C 4,4 C 1,1 C 86 % 1022,0 hPa 0,0 l/m 0 min 0 min 0 W/m 12,9 km/h (3 Bft) 95,74 %
27.12.2022 21:26 5,1 C 4,4 C 1,1 C 86 % 1022,1 hPa 0,0 l/m 0 min 0 min 0 W/m 12,9 km/h (3 Bft) 95,74 %
27.12.2022 21:28 5,1 C 4,4 C 1,1 C 86 % 1022,0 hPa 0,0 l/m 0 min 0 min 0 W/m 22,5 km/h (4 Bft) 95,74 %
27.12.2022 21:30 5,1 C 4,4 C 1,1 C 86 % 1022,0 hPa 0,0 l/m 0 min 0 min 0 W/m 16,1 km/h (3 Bft) 95,74 %
27.12.2022 21:32 5,0 C 3,9 C 1,1 C 86 % 1022,0 hPa 0,0 l/m 0 min 0 min 0 W/m 9,7 km/h (2 Bft) 95,74 %
27.12.2022 21:34 5,0 C 3,9 C 1,1 C 86 % 1022,0 hPa 0,0 l/m 0 min 0 min 0 W/m 12,9 km/h (3 Bft) 93,48 %
27.12.2022 21:36 5,0 C 3,9 C 1,1 C 86 % 1022,0 hPa 0,0 l/m 0 min 0 min 0 W/m 12,9 km/h (3 Bft) 93,62 %
27.12.2022 21:38 4,9 C 3,9 C 1,1 C 86 % 1022,0 hPa 0,0 l/m 0 min 0 min 0 W/m 16,1 km/h (3 Bft) 95,74 %
27.12.2022 21:40 4,9 C 3,9 C 1,1 C 86 % 1021,9 hPa 0,0 l/m 0 min 0 min 0 W/m 12,9 km/h (3 Bft) 95,74 %
27.12.2022 21:42 4,9 C 3,9 C 1,1 C 86 % 1021,9 hPa 0,0 l/m 0 min 0 min 0 W/m 9,7 km/h (2 Bft) 95,74 %
27.12.2022 21:44 4,9 C 3,9 C 1,1 C 86 % 1021,8 hPa 0,0 l/m 0 min 0 min 0 W/m 3,2 km/h (1 Bft) 95,74 %
27.12.2022 21:46 4,8 C 3,9 C 1,1 C 86 % 1021,8 hPa 0,0 l/m 0 min 0 min 0 W/m 6,4 km/h (2 Bft) 93,48 %
27.12.2022 21:48 4,8 C 3,9 C 1,1 C 86 % 1021,7 hPa 0,0 l/m 0 min 0 min 0 W/m 19,3 km/h (3 Bft) 95,74 %
27.12.2022 21:50 4,8 C 3,9 C 1,1 C 86 % 1021,7 hPa 0,0 l/m 0 min 0 min 0 W/m 12,9 km/h (3 Bft) 95,74 %
27.12.2022 21:52 4,8 C 3,9 C 1,1 C 86 % 1021,7 hPa 0,0 l/m 0 min 0 min 0 W/m 6,4 km/h (2 Bft) 93,62 %
27.12.2022 21:54 4,7 C 3,9 C 1,1 C 86 % 1021,7 hPa 0,0 l/m 0 min 0 min 0 W/m 6,4 km/h (2 Bft) 95,74 %
27.12.2022 21:56 4,7 C 3,9 C 1,1 C 86 % 1021,7 hPa 0,0 l/m 0 min 0 min 0 W/m 6,4 km/h (2 Bft) 100,00 %
27.12.2022 21:58 4,7 C 3,9 C 1,1 C 86 % 1021,7 hPa 0,0 l/m 0 min 0 min 0 W/m 9,7 km/h (2 Bft) 100,00 %
27.12.2022 22:00 4,7 C 3,3 C 1,1 C 86 % 1021,6 hPa 0,0 l/m 0 min 0 min 0 W/m 6,4 km/h (2 Bft) 100,00 %
27.12.2022 22:02 4,6 C 3,3 C 1,1 C 87 % 1021,6 hPa 0,0 l/m 0 min 0 min 0 W/m 12,9 km/h (3 Bft) 97,87 %
27.12.2022 22:04 4,6 C 3,3 C 1,1 C 87 % 1021,7 hPa 0,0 l/m 0 min 0 min 0 W/m 6,4 km/h (2 Bft) 97,87 %
27.12.2022 22:06 4,6 C 3,3 C 1,1 C 87 % 1021,6 hPa 0,0 l/m 0 min 0 min 0 W/m 9,7 km/h (2 Bft) 100,00 %
27.12.2022 22:08 4,6 C 3,3 C 0,6 C 87 % 1021,6 hPa 0,0 l/m 0 min 0 min 0 W/m 12,9 km/h (3 Bft) 100,00 %
27.12.2022 22:10 4,5 C 3,3 C 0,6 C 87 % 1021,5 hPa 0,0 l/m 0 min 0 min 0 W/m 9,7 km/h (2 Bft) 97,83 %
27.12.2022 22:12 4,5 C 3,3 C 0,6 C 87 % 1021,6 hPa 0,0 l/m 0 min 0 min 0 W/m 9,7 km/h (2 Bft) 100,00 %
27.12.2022 22:14 4,5 C 3,9 C 0,6 C 87 % 1021,5 hPa 0,0 l/m 0 min 0 min 0 W/m 12,9 km/h (3 Bft) 100,00 %
27.12.2022 22:16 4,5 C 3,9 C 1,1 C 87 % 1021,5 hPa 0,0 l/m 0 min 0 min 0 W/m 16,1 km/h (3 Bft) 97,87 %
27.12.2022 22:18 4,5 C 3,9 C 1,1 C 87 % 1021,5 hPa 0,0 l/m 0 min 0 min 0 W/m 22,5 km/h (4 Bft) 100,00 %
27.12.2022 22:20 4,6 C 3,9 C 1,1 C 87 % 1021,4 hPa 0,0 l/m 0 min 0 min 0 W/m 16,1 km/h (3 Bft) 100,00 %
27.12.2022 22:22 4,6 C 3,9 C 1,1 C 87 % 1021,5 hPa 0,0 l/m 0 min 0 min 0 W/m 16,1 km/h (3 Bft) 100,00 %
27.12.2022 22:24 4,6 C 4,4 C 1,1 C 87 % 1021,4 hPa 0,0 l/m 0 min 0 min 0 W/m 9,7 km/h (2 Bft) 95,74 %
27.12.2022 22:26 4,7 C 4,4 C 1,1 C 87 % 1021,4 hPa 0,0 l/m 0 min 0 min 0 W/m 16,1 km/h (3 Bft) 100,00 %
27.12.2022 22:28 4,7 C 4,4 C 1,1 C 87 % 1021,4 hPa 0,0 l/m 0 min 0 min 0 W/m 12,9 km/h (3 Bft) 97,87 %
27.12.2022 22:30 4,7 C 4,4 C 1,1 C 87 % 1021,3 hPa 0,0 l/m 0 min 0 min 0 W/m 19,3 km/h (3 Bft) 100,00 %
27.12.2022 22:32 4,8 C 4,4 C 1,1 C 87 % 1021,2 hPa 0,0 l/m 0 min 0 min 0 W/m 19,3 km/h (3 Bft) 100,00 %
27.12.2022 22:34 4,8 C 4,4 C 1,7 C 87 % 1021,2 hPa 0,0 l/m 0 min 0 min 0 W/m 16,1 km/h (3 Bft) 100,00 %
27.12.2022 22:36 4,9 C 4,4 C 1,7 C 86 % 1021,2 hPa 0,0 l/m 0 min 0 min 0 W/m 25,7 km/h (4 Bft) 100,00 %
27.12.2022 22:38 4,9 C 4,4 C 1,7 C 86 % 1021,2 hPa 0,0 l/m 0 min 0 min 0 W/m 16,1 km/h (3 Bft) 100,00 %
27.12.2022 22:40 5,0 C 4,4 C 1,7 C 86 % 1021,2 hPa 0,0 l/m 0 min 0 min 0 W/m 19,3 km/h (3 Bft) 97,87 %
27.12.2022 22:42 5,1 C 4,4 C 1,7 C 86 % 1021,2 hPa 0,0 l/m 0 min 0 min 0 W/m 16,1 km/h (3 Bft) 100,00 %
27.12.2022 22:44 5,1 C 4,4 C 1,7 C 86 % 1021,2 hPa 0,0 l/m 0 min 0 min 0 W/m 25,7 km/h (4 Bft) 100,00 %
27.12.2022 22:46 5,1 C 4,4 C 1,7 C 85 % 1021,2 hPa 0,0 l/m 0 min 0 min 0 W/m 16,1 km/h (3 Bft) 95,65 %
27.12.2022 22:48 5,2 C 4,4 C 1,7 C 85 % 1021,1 hPa 0,0 l/m 0 min 0 min 0 W/m 16,1 km/h (3 Bft) 100,00 %
27.12.2022 22:50 5,2 C 4,4 C 1,7 C 85 % 1021,1 hPa 0,0 l/m 0 min 0 min 0 W/m 12,9 km/h (3 Bft) 100,00 %
27.12.2022 22:52 5,2 C 4,4 C 1,7 C 85 % 1021,1 hPa 0,0 l/m 0 min 0 min 0 W/m 12,9 km/h (3 Bft) 97,87 %
27.12.2022 22:54 5,2 C 4,4 C 1,7 C 85 % 1021,1 hPa 0,0 l/m 0 min 0 min 0 W/m 12,9 km/h (3 Bft) 100,00 %
27.12.2022 22:56 5,2 C 4,4 C 1,7 C 85 % 1021,0 hPa 0,0 l/m 0 min 0 min 0 W/m 19,3 km/h (3 Bft) 97,87 %
27.12.2022 22:58 5,2 C 4,4 C 1,7 C 85 % 1021,0 hPa 0,0 l/m 0 min 0 min 0 W/m 12,9 km/h (3 Bft) 100,00 %
27.12.2022 23:00 5,2 C 4,4 C 1,7 C 85 % 1021,0 hPa 0,0 l/m 0 min 0 min 0 W/m 16,1 km/h (3 Bft) 100,00 %
27.12.2022 23:02 5,2 C 4,4 C 1,7 C 85 % 1021,0 hPa 0,0 l/m 0 min 0 min 0 W/m 12,9 km/h (3 Bft) 100,00 %
27.12.2022 23:04 5,1 C 4,4 C 1,7 C 85 % 1021,0 hPa 0,0 l/m 0 min 0 min 0 W/m 19,3 km/h (3 Bft) 100,00 %
27.12.2022 23:06 5,1 C 4,4 C 1,7 C 85 % 1021,0 hPa 0,0 l/m 0 min 0 min 0 W/m 12,9 km/h (3 Bft) 95,74 %
27.12.2022 23:08 5,1 C 4,4 C 1,7 C 85 % 1021,0 hPa 0,0 l/m 0 min 0 min 0 W/m 12,9 km/h (3 Bft) 100,00 %
27.12.2022 23:10 5,1 C 4,4 C 1,7 C 85 % 1021,0 hPa 0,0 l/m 0 min 0 min 0 W/m 12,9 km/h (3 Bft) 97,87 %
27.12.2022 23:12 5,1 C 4,4 C 1,7 C 85 % 1020,9 hPa 0,0 l/m 0 min 0 min 0 W/m 9,7 km/h (2 Bft) 93,62 %
27.12.2022 23:14 5,1 C 4,4 C 1,7 C 85 % 1020,8 hPa 0,0 l/m 0 min 0 min 0 W/m 12,9 km/h (3 Bft) 97,87 %
27.12.2022 23:16 5,1 C 4,4 C 1,7 C 85 % 1020,8 hPa 0,0 l/m 0 min 0 min 0 W/m 9,7 km/h (2 Bft) 93,62 %
27.12.2022 23:18 5,1 C 4,4 C 1,1 C 85 % 1020,8 hPa 0,0 l/m 0 min 0 min 0 W/m 12,9 km/h (3 Bft) 95,74 %
27.12.2022 23:20 5,1 C 4,4 C 1,1 C 85 % 1020,7 hPa 0,0 l/m 0 min 0 min 0 W/m 12,9 km/h (3 Bft) 95,74 %
27.12.2022 23:22 5,1 C 4,4 C 1,1 C 85 % 1020,7 hPa 0,0 l/m 0 min 0 min 0 W/m 12,9 km/h (3 Bft) 93,48 %
27.12.2022 23:24 5,1 C 4,4 C 1,1 C 85 % 1020,7 hPa 0,0 l/m 0 min 0 min 0 W/m 12,9 km/h (3 Bft) 93,62 %
27.12.2022 23:26 5,1 C 4,4 C 1,1 C 85 % 1020,5 hPa 0,0 l/m 0 min 0 min 0 W/m 9,7 km/h (2 Bft) 95,74 %
27.12.2022 23:28 5,1 C 3,9 C 1,1 C 85 % 1020,6 hPa 0,0 l/m 0 min 0 min 0 W/m 6,4 km/h (2 Bft) 93,62 %
27.12.2022 23:30 5,0 C 3,9 C 1,1 C 85 % 1020,6 hPa 0,0 l/m 0 min 0 min 0 W/m 12,9 km/h (3 Bft) 95,74 %
27.12.2022 23:32 5,0 C 3,9 C 1,1 C 85 % 1020,5 hPa 0,0 l/m 0 min 0 min 0 W/m 12,9 km/h (3 Bft) 93,48 %
27.12.2022 23:34 4,9 C 3,9 C 1,1 C 86 % 1020,5 hPa 0,0 l/m 0 min 0 min 0 W/m 16,1 km/h (3 Bft) 91,49 %
27.12.2022 23:36 4,9 C 3,9 C 1,1 C 86 % 1020,4 hPa 0,0 l/m 0 min 0 min 0 W/m 12,9 km/h (3 Bft) 95,74 %
27.12.2022 23:38 4,9 C 3,9 C 1,1 C 86 % 1020,4 hPa 0,0 l/m 0 min 0 min 0 W/m 9,7 km/h (2 Bft) 95,74 %
27.12.2022 23:40 4,9 C 3,9 C 1,1 C 86 % 1020,3 hPa 0,0 l/m 0 min 0 min 0 W/m 12,9 km/h (3 Bft) 95,74 %
27.12.2022 23:42 4,9 C 3,9 C 1,1 C 86 % 1020,2 hPa 0,0 l/m 0 min 0 min 0 W/m 12,9 km/h (3 Bft) 95,74 %
27.12.2022 23:44 4,9 C 3,9 C 1,1 C 86 % 1020,1 hPa 0,0 l/m 0 min 0 min 0 W/m 12,9 km/h (3 Bft) 95,65 %
27.12.2022 23:46 4,8 C 3,9 C 1,1 C 86 % 1020,3 hPa 0,0 l/m 0 min 0 min 0 W/m 12,9 km/h (3 Bft) 97,87 %
27.12.2022 23:48 4,8 C 3,9 C 1,1 C 86 % 1020,1 hPa 0,0 l/m 0 min 0 min 0 W/m 9,7 km/h (2 Bft) 95,74 %
27.12.2022 23:50 4,8 C 3,9 C 1,1 C 86 % 1020,1 hPa 0,0 l/m 0 min 0 min 0 W/m 12,9 km/h (3 Bft) 95,74 %
27.12.2022 23:52 4,8 C 3,9 C 1,1 C 86 % 1020,0 hPa 0,0 l/m 0 min 0 min 0 W/m 16,1 km/h (3 Bft) 100,00 %
27.12.2022 23:54 4,8 C 3,9 C 1,1 C 87 % 1020,0 hPa 0,0 l/m 0 min 0 min 0 W/m 12,9 km/h (3 Bft) 100,00 %
27.12.2022 23:56 4,8 C 3,9 C 1,1 C 87 % 1020,0 hPa 0,0 l/m 0 min 0 min 0 W/m 12,9 km/h (3 Bft) 97,83 %
27.12.2022 23:58 4,8 C 3,9 C 1,1 C 87 % 1020,0 hPa 0,0 l/m 0 min 0 min 0 W/m 16,1 km/h (3 Bft) 97,87 %
_ Min-Zeit 07:48 00:02 08:38 22:46 23:52 - - - - 08:22 19:24
Minimum _ 3,5 C 2,8 C 0,0 C 85 % 1020,0 hPa - - - - 3,2 km/h (1 Bft) 35,48 %
_ Max-Zeit 12:46 12:42 12:42 08:48 10:26 05:44 10:45 00:00 11:10 05:48 02:16
Maximum _ 7,3 C 7,8 C 3,9 C 95 % 1026,2 hPa 0,2 l/m 5 min 0 min 200 W/m 41,8 km/h
S-SW (6 Bft)
100,00 %
Durchschnitt _ 5,1 C 4,4 C 1,8 C 90 % 1024,1 hPa #0,2 l/m #1:00 h #0 min. 68 W/m 16,4 km/h (3 Bft) 96,90 %
© 2022 W. Hausmann